GW5830 Weather Reports


Display with metric or nautical units.
time (UTC)temp
F
wind
direction
speed
MPH
gust
MPH
rain 1hr
in
rain 24hr
in
rain mn
in
humidity
%
barometer
mb
20260507054758 37 144 2.0 2.0 0.01 0.09 0.09 92 1010.3
20260507054658 37 144 0.0 2.0 0.01 0.09 0.09 92 1010.3
20260507054557 37 144 0.0 2.0 0.01 0.09 0.09 92 1010.3
20260507054500 37 144 0.0 2.0 0.01 0.09 0.09 92 1010.3
20260507054358 37 144 0.0 2.0 0.01 0.09 0.09 92 1010.3
20260507054259 37 144 0.0 2.0 0.01 0.09 0.09 92 1010.3
20260507054159 37 144 0.0 2.0 0.01 0.09 0.09 91 1010.2
20260507054058 37 144 0.0 2.0 0.01 0.09 0.09 91 1010.2
20260507054003 37 144 0.0 2.0 0.01 0.09 0.09 91 1010.2
20260507053858 37 144 0.0 2.0 0.01 0.09 0.09 92 1010.2
20260507053758 37 144 1.0 2.0 0.01 0.09 0.09 92 1010.3
20260507053658 37 144 0.0 2.0 0.01 0.09 0.09 92 1010.2
20260507053500 37 144 0.0 2.0 0.01 0.09 0.09 91 1010.2
20260507053359 37 144 1.0 2.0 0.01 0.09 0.09 91 1010.2
20260507053258 37 144 1.0 2.0 0.01 0.09 0.09 91 1010.2
20260507053158 37 144 1.0 2.0 0.01 0.09 0.09 91 1010.2
20260507053058 37 144 2.0 2.0 0.01 0.09 0.09 91 1010.2
20260507053001 37 144 1.0 2.0 0.01 0.09 0.09 91 1010.2
20260507052859 37 144 0.0 2.0 0.01 0.09 0.09 91 1010.2
20260507052757 37 144 1.0 2.0 0.01 0.09 0.09 91 1010.2
20260507052700 37 144 1.0 2.0 0.01 0.09 0.09 91 1010.2
20260507052558 37 144 1.0 2.0 0.01 0.09 0.09 91 1010.1
20260507052500 37 144 1.0 2.0 0.01 0.09 0.09 91 1010.2
20260507052158 37 144 0.0 2.0 0.01 0.09 0.09 90 1010.1
20260507052058 37 144 1.0 2.0 0.01 0.09 0.09 90 1010.2
20260507052001 37 144 2.0 2.0 0.01 0.09 0.09 90 1010.2
20260507051757 37 144 1.0 2.0 0.02 0.09 0.09 90 1010.1
20260507051558 37 144 1.0 3.0 0.02 0.09 0.09 90 1010.1
20260507051500 37 144 2.0 4.0 0.02 0.09 0.09 90 1010.1
20260507051357 37 144 1.0 4.0 0.02 0.09 0.09 90 1010.1
20260507051259 37 144 1.0 4.0 0.02 0.09 0.09 90 1010.1
20260507051159 37 144 1.0 4.0 0.02 0.09 0.09 90 1010.1
20260507051058 37 144 1.0 4.0 0.02 0.09 0.09 90 1010.1
20260507051000 37 144 1.0 4.0 0.03 0.09 0.09 90 1010.1
20260507050858 37 144 1.0 4.0 0.03 0.09 0.09 90 1010.1
20260507050758 37 144 2.0 4.0 0.03 0.09 0.09 90 1010.0
20260507050658 37 144 2.0 4.0 0.03 0.09 0.09 90 1010.0
20260507050459 37 137 2.0 4.0 0.04 0.09 0.09 90 1010.1
20260507050358 37 137 4.0 4.0 0.04 0.08 0.08 90 1010.0
20260507050159 37 127 2.0 4.0 0.04 0.08 0.08 90 1010.0
20260507050058 37 127 2.0 4.0 0.05 0.08 0.08 90 1010.0
20260507045958 37 126 2.0 4.0 0.05 0.08 0.08 90 1010.1
20260507045857 37 126 2.0 4.0 0.05 0.08 0.08 90 1010.0
20260507045757 37 126 1.0 4.0 0.05 0.08 0.08 90 1010.0
20260507045657 37 126 1.0 4.0 0.06 0.08 0.08 89 1010.0
20260507045557 37 126 3.0 4.0 0.06 0.08 0.08 90 1010.0
20260507045459 37 126 2.0 2.0 0.07 0.08 0.08 90 1010.1
20260507045357 37 126 0.0 2.0 0.07 0.08 0.08 90 1010.1
20260507045258 37 126 1.0 1.0 0.07 0.08 0.08 90 1010.1
20260507045157 37 126 1.0 1.0 0.07 0.08 0.08 90 1010.1
20260507045057 37 126 1.0 1.0 0.07 0.08 0.08 90 1010.1
20260507044959 37 126 0.0 1.0 0.08 0.08 0.08 90 1010.1
20260507044857 37 126 0.0 2.0 0.08 0.08 0.08 90 1010.1
20260507044757 37 126 0.0 3.0 0.08 0.08 0.08 90 1010.1
20260507044658 37 126 0.0 3.0 0.08 0.08 0.08 90 1010.1
20260507044557 37 126 0.0 3.0 0.08 0.08 0.08 90 1010.1
20260507044358 37 126 0.0 3.0 0.08 0.08 0.08 89 1010.1
20260507044257 37 126 0.0 3.0 0.08 0.08 0.08 89 1010.1
20260507044157 37 126 1.0 3.0 0.08 0.08 0.08 89 1010.1
20260507044058 37 126 1.0 3.0 0.08 0.08 0.08 89 1010.1
20260507043959 37 126 2.0 3.0 0.08 0.08 0.08 89 1010.1
20260507043756 37 126 1.0 3.0 0.08 0.08 0.08 89 1010.1
20260507043657 37 126 1.0 3.0 0.08 0.08 0.08 89 1010.0
20260507043559 37 126 1.0 3.0 0.08 0.08 0.08 89 1010.0
20260507043458 37 126 1.0 3.0 0.08 0.08 0.08 88 1010.1
20260507043357 37 126 2.0 3.0 0.08 0.08 0.08 88 1010.1
20260507043257 37 126 3.0 3.0 0.08 0.08 0.08 89 1010.1
20260507043157 37 126 2.0 4.0 0.08 0.08 0.08 89 1010.1
20260507043057 37 126 2.0 4.0 0.08 0.08 0.08 89 1010.1
20260507043000 37 126 3.0 4.0 0.08 0.08 0.08 89 1010.1
20260507042858 37 126 2.0 4.0 0.08 0.08 0.08 89 1010.1
20260507042757 37 126 2.0 6.0 0.08 0.08 0.08 89 1010.1
20260507042657 37 126 1.0 6.0 0.08 0.08 0.08 88 1010.2
20260507042557 37 126 1.0 6.0 0.08 0.08 0.08 88 1010.1
20260507042357 37 125 3.0 6.0 0.08 0.08 0.08 88 1010.1
20260507042257 37 115 3.0 6.0 0.08 0.08 0.08 88 1010.2
20260507041958 37 107 4.0 6.0 0.07 0.07 0.07 88 1010.2
20260507041858 37 91 6.0 6.0 0.07 0.07 0.07 88 1010.2
20260507041757 37 96 4.0 6.0 0.07 0.07 0.07 87 1010.2
20260507041658 37 95 3.0 6.0 0.07 0.07 0.07 87 1010.2
20260507041558 37 99 2.0 6.0 0.07 0.07 0.07 87 1010.2
20260507041458 37 115 4.0 6.0 0.07 0.07 0.07 87 1010.2
20260507041358 37 155 2.0 5.0 0.07 0.07 0.07 87 1010.2
20260507041258 37 156 2.0 5.0 0.07 0.07 0.07 87 1010.2
20260507041158 37 161 4.0 9.0 0.07 0.07 0.07 87 1010.2
20260507041058 37 161 4.0 9.0 0.07 0.07 0.07 87 1010.2
20260507040958 37 163 5.0 9.0 0.06 0.06 0.06 86 1010.2
20260507040857 37 150 3.0 9.0 0.06 0.06 0.06 86 1010.2
20260507040757 37 150 3.0 9.0 0.06 0.06 0.06 86 1010.2
20260507040658 37 147 4.0 9.0 0.06 0.06 0.06 86 1010.3
20260507040558 37 178 2.0 12.0 0.05 0.05 0.05 86 1010.2
20260507040500 37 178 3.0 12.0 0.05 0.05 0.05 85 1010.2
20260507040401 37 178 2.0 13.0 0.04 0.04 0.04 85 1010.2
20260507040156 38 151 5.0 14.0 0.04 0.04 0.04 85 1010.2
20260507040059 38 181 4.0 14.0 0.03 0.03 0.03 84 1010.1
20260507035959 38 168 5.0 14.0 0.03 0.03 0.03 84 1010.2
20260507035857 38 191 4.0 14.0 0.03 0.03 0.03 83 1010.1
20260507035757 38 167 9.0 14.0 0.03 0.03 0.03 83 1010.1
20260507035658 39 194 8.0 15.0 0.02 0.02 0.02 82 1010.1
20260507035556 39 155 13.0 15.0 0.02 0.02 0.02 81 1010.1
20260507035459 39 194 10.0 15.0 0.01 0.01 0.01 81 1010.1
20260507035358 40 184 7.0 15.0 0.01 0.01 0.01 80 1010.0
20260507035258 40 214 8.0 15.0 0.01 0.01 0.01 79 1010.0
20260507035158 40 161 7.0 15.0 0.01 0.01 0.01 78 1010.0
20260507035057 41 189 5.0 15.0 0.01 0.01 0.01 77 1010.0
20260507035000 41 205 9.0 15.0 0.00 0.00 0.00 75 1009.9
20260507034857 41 240 11.0 11.0 0.00 0.00 0.00 73 1009.9
20260507034757 42 178 6.0 10.0 0.00 0.00 0.00 71 1009.9
20260507034658 42 180 7.0 10.0 0.00 0.00 0.00 71 1009.8
20260507034557 42 202 9.0 11.0 0.00 0.00 0.00 71 1009.8
20260507034459 42 217 7.0 10.0 0.00 0.00 0.00 70 1009.7
20260507034357 42 238 10.0 10.0 0.00 0.00 0.00 69 1009.6
20260507034257 42 165 4.0 9.0 0.00 0.00 0.00 69 1009.6
20260507034157 42 151 4.0 9.0 0.00 0.00 0.00 68 1009.6
20260507033959 42 200 7.0 8.0 0.00 0.00 0.00 70 1009.5
20260507033856 42 171 7.0 7.0 0.00 0.00 0.00 71 1009.5
20260507033756 42 274 3.0 7.0 0.00 0.00 0.00 71 1009.5
20260507033558 42 232 6.0 8.0 0.00 0.00 0.00 71 1009.5
20260507033500 42 279 1.0 7.0 0.00 0.00 0.00 71 1009.4
20260507033257 43 273 4.0 6.0 0.00 0.00 0.00 71 1009.3
20260507033158 43 273 3.0 4.0 0.00 0.00 0.00 71 1009.3
20260507033057 43 250 4.0 4.0 0.00 0.00 0.00 71 1009.3
20260507032959 43 99 2.0 3.0 0.00 0.00 0.00 71 1009.2
20260507032857 43 99 0.0 3.0 0.00 0.00 0.00 71 1009.3
20260507032657 42 99 1.0 8.0 0.00 0.00 0.00 71 1009.2
20260507032459 42 123 2.0 9.0 0.00 0.00 0.00 71 1009.2
20260507032358 42 123 0.0 9.0 0.00 0.00 0.00 71 1009.1
20260507032256 42 123 1.0 9.0 0.00 0.00 0.00 71 1009.1
20260507032158 42 123 2.0 9.0 0.00 0.00 0.00 71 1009.1
20260507032058 43 124 1.0 9.0 0.00 0.00 0.00 71 1009.2
20260507032006 43 124 0.0 9.0 0.00 0.00 0.00 71 1009.2
20260507031858 43 124 3.0 9.0 0.00 0.00 0.00 71 1009.2
20260507031758 42 140 4.0 9.0 0.00 0.00 0.00 71 1009.2
20260507031659 43 158 5.0 5.0 0.00 0.00 0.00 72 1009.2
20260507031557 43 20 2.0 5.0 0.00 0.00 0.00 74 1009.2
20260507031459 43 19 2.0 5.0 0.00 0.00 0.00 74 1009.2
20260507031357 43 15 3.0 5.0 0.00 0.00 0.00 73 1009.1
20260507031256 43 13 2.0 5.0 0.00 0.00 0.00 73 1009.2
20260507031158 43 13 4.0 7.0 0.00 0.00 0.00 73 1009.2
20260507031056 43 17 3.0 7.0 0.00 0.00 0.00 72 1009.2
20260507030958 43 12 3.0 7.0 0.00 0.00 0.00 71 1009.1
20260507030857 43 306 3.0 7.0 0.00 0.00 0.00 71 1009.1
20260507030758 43 279 3.0 7.0 0.00 0.00 0.00 71 1009.1
20260507030459 43 269 2.0 7.0 0.00 0.00 0.00 70 1009.2
20260507030356 43 269 6.0 7.0 0.00 0.00 0.00 68 1009.1
20260507030258 43 191 3.0 7.0 0.00 0.00 0.00 66 1009.1
20260507030158 43 240 2.0 7.0 0.00 0.00 0.00 66 1009.1
20260507025959 43 257 3.0 7.0 0.00 0.00 0.00 67 1009.1
20260507025858 43 257 4.0 7.0 0.00 0.00 0.00 67 1009.0
20260507025757 43 269 1.0 7.0 0.00 0.00 0.00 66 1009.1
20260507025656 43 134 0.0 10.0 0.00 0.00 0.00 66 1009.0
20260507025557 43 134 2.0 10.0 0.00 0.00 0.00 65 1009.0
20260507025458 43 134 7.0 10.0 0.00 0.00 0.00 65 1009.0
20260507025357 43 134 4.0 10.0 0.00 0.00 0.00 66 1009.0
20260507025258 43 288 1.0 10.0 0.00 0.00 0.00 67 1009.0
20260507025158 43 294 5.0 10.0 0.00 0.00 0.00 65 1009.0
20260507024959 43 42 5.0 10.0 0.00 0.00 0.00 67 1009.1
20260507024858 43 38 7.0 10.0 0.00 0.00 0.00 70 1009.0
20260507024658 43 340 3.0 6.0 0.00 0.00 0.00 70 1009.0
20260507024459 43 316 4.0 7.0 0.00 0.00 0.00 71 1009.0
20260507024358 43 308 3.0 7.0 0.00 0.00 0.00 72 1009.0
20260507024256 43 308 1.0 7.0 0.00 0.00 0.00 71 1009.0
20260507024157 43 307 1.0 7.0 0.00 0.00 0.00 71 1009.0
20260507024058 43 295 2.0 7.0 0.00 0.00 0.00 71 1009.0
20260507023958 43 296 3.0 7.0 0.00 0.00 0.00 71 1009.0
20260507023857 43 295 3.0 7.0 0.00 0.00 0.00 71 1009.0
20260507023757 43 289 2.0 7.0 0.00 0.00 0.00 69 1009.0
20260507023658 43 304 4.0 7.0 0.00 0.00 0.00 68 1009.0
20260507023557 43 306 4.0 7.0 0.00 0.00 0.00 68 1008.9
20260507023500 43 313 4.0 6.0 0.00 0.00 0.00 68 1008.9
20260507023358 43 288 7.0 7.0 0.00 0.00 0.00 68 1008.8
20260507023257 43 303 2.0 5.0 0.00 0.00 0.00 68 1008.9
20260507023157 43 285 3.0 9.0 0.00 0.00 0.00 68 1009.0
20260507023056 43 262 2.0 9.0 0.00 0.00 0.00 69 1008.9
20260507022958 43 209 3.0 11.0 0.00 0.00 0.00 71 1008.9
20260507022756 43 183 0.0 11.0 0.00 0.00 0.00 72 1008.9
20260507022657 43 183 1.0 11.0 0.00 0.00 0.00 72 1009.0
20260507022557 43 183 1.0 11.0 0.00 0.00 0.00 73 1008.9
20260507022459 43 183 0.0 11.0 0.00 0.00 0.00 73 1008.9
20260507022358 43 183 4.0 11.0 0.00 0.00 0.00 72 1008.8
20260507022157 43 136 7.0 11.0 0.00 0.00 0.00 67 1008.9
20260507022056 43 181 3.0 7.0 0.00 0.00 0.00 70 1008.9
20260507022000 43 263 1.0 7.0 0.00 0.00 0.00 69 1009.0
20260507021858 43 272 3.0 7.0 0.00 0.00 0.00 71 1008.9
20260507021758 44 272 0.0 7.0 0.00 0.00 0.00 71 1008.9
20260507021658 44 272 2.0 7.0 0.00 0.00 0.00 68 1008.8
20260507021459 44 272 4.0 7.0 0.00 0.00 0.00 66 1008.9
20260507021358 44 275 3.0 7.0 0.00 0.00 0.00 66 1008.8
20260507021258 44 277 3.0 7.0 0.00 0.00 0.00 66 1008.8
20260507021157 44 278 7.0 7.0 0.00 0.00 0.00 67 1008.8
20260507020958 44 300 3.0 5.0 0.00 0.00 0.00 68 1008.8
20260507020858 44 183 1.0 8.0 0.00 0.00 0.00 68 1008.8
20260507020758 44 183 2.0 8.0 0.00 0.00 0.00 68 1008.8
20260507020657 43 183 0.0 8.0 0.00 0.00 0.00 69 1008.8
20260507020459 43 183 1.0 8.0 0.00 0.00 0.00 69 1008.8
20260507020256 43 180 2.0 8.0 0.00 0.00 0.00 67 1008.8
20260507020159 43 175 2.0 8.0 0.00 0.00 0.00 68 1008.8
20260507020058 43 167 3.0 8.0 0.00 0.00 0.00 68 1008.8
20260507015959 43 171 7.0 9.0 0.00 0.00 0.00 70 1008.8
20260507015656 43 103 6.0 6.0 0.00 0.00 0.00 79 1008.8
20260507015557 43 311 1.0 3.0 0.00 0.00 0.00 79 1008.7
20260507015458 43 312 2.0 3.0 0.00 0.00 0.00 78 1008.7
20260507015358 43 313 2.0 3.0 0.00 0.00 0.00 78 1008.7
20260507015257 43 312 0.0 3.0 0.00 0.00 0.00 77 1008.8
20260507015159 43 313 2.0 3.0 0.00 0.00 0.00 77 1008.7
20260507015058 43 312 1.0 3.0 0.00 0.00 0.00 78 1008.7
20260507014959 43 312 1.0 3.0 0.00 0.00 0.00 77 1008.8
20260507014757 43 312 1.0 3.0 0.00 0.00 0.00 77 1008.7
20260507014658 43 317 1.0 3.0 0.00 0.00 0.00 77 1008.7
20260507014557 43 318 1.0 3.0 0.00 0.00 0.00 77 1008.7
20260507014459 43 317 2.0 3.0 0.00 0.00 0.00 77 1008.7
20260507014357 43 317 2.0 3.0 0.00 0.00 0.00 78 1008.7
20260507014258 43 317 2.0 3.0 0.00 0.00 0.00 77 1008.6
20260507014158 43 317 1.0 3.0 0.00 0.00 0.00 76 1008.7
20260507014057 43 317 1.0 3.0 0.00 0.00 0.00 76 1008.7
20260507013958 43 317 0.0 3.0 0.00 0.00 0.00 76 1008.6
20260507013858 43 317 1.0 3.0 0.00 0.00 0.00 76 1008.7
20260507013759 43 317 2.0 3.0 0.00 0.00 0.00 76 1008.7
20260507013558 43 317 1.0 3.0 0.00 0.00 0.00 76 1008.7
20260507013459 43 317 0.0 3.0 0.00 0.00 0.00 77 1008.7
20260507013357 43 317 2.0 3.0 0.00 0.00 0.00 78 1008.6
20260507013158 43 317 2.0 3.0 0.00 0.00 0.00 79 1008.7
20260507013058 43 317 2.0 3.0 0.00 0.00 0.00 79 1008.6
20260507012959 43 317 0.0 3.0 0.00 0.00 0.00 79 1008.7
20260507012859 42 317 2.0 3.0 0.00 0.00 0.00 80 1008.7
20260507012657 42 317 0.0 2.0 0.00 0.00 0.00 80 1008.7
20260507012605 42 317 0.0 2.0 0.00 0.00 0.00 81 1008.7
20260507012459 42 317 1.0 2.0 0.00 0.00 0.00 81 1008.7
20260507012357 42 317 2.0 2.0 0.00 0.00 0.00 81 1008.7
20260507012306 42 317 1.0 2.0 0.00 0.00 0.00 80 1008.7
20260507012159 42 317 0.0 3.0 0.00 0.00 0.00 79 1008.8
20260507012058 42 318 0.0 3.0 0.00 0.00 0.00 78 1008.7
20260507012000 42 317 1.0 3.0 0.00 0.00 0.00 78 1008.8
20260507011857 42 317 1.0 3.0 0.00 0.00 0.00 79 1008.7
20260507011758 42 317 0.0 3.0 0.00 0.00 0.00 80 1008.8
20260507011556 42 317 1.0 4.0 0.00 0.00 0.00 81 1008.8
20260507011458 42 317 1.0 4.0 0.00 0.00 0.00 80 1008.8
20260507011256 42 318 1.0 4.0 0.00 0.00 0.00 78 1008.8
20260507011159 42 318 2.0 4.0 0.00 0.00 0.00 79 1008.8
20260507011056 42 318 2.0 4.0 0.00 0.00 0.00 80 1008.8
20260507010959 42 318 2.0 4.0 0.00 0.00 0.00 79 1008.8
20260507010857 42 318 1.0 4.0 0.00 0.00 0.00 79 1008.7
20260507010757 42 318 2.0 4.0 0.00 0.00 0.00 79 1008.8
20260507010657 42 48 3.0 4.0 0.00 0.00 0.00 79 1008.8
20260507010558 42 51 0.0 5.0 0.00 0.00 0.00 79 1008.8
20260507010459 42 51 0.0 5.0 0.00 0.00 0.00 79 1008.8
20260507010257 41 51 1.0 5.0 0.00 0.00 0.00 80 1008.8
20260507010157 41 52 1.0 5.0 0.00 0.00 0.00 80 1008.8
20260507005959 41 51 1.0 5.0 0.00 0.00 0.00 80 1008.7
20260507005857 41 52 3.0 5.0 0.00 0.00 0.00 80 1008.7
20260507005757 41 52 4.0 5.0 0.00 0.00 0.00 80 1008.7
20260507005559 41 16 2.0 5.0 0.00 0.00 0.00 80 1008.7
20260507005459 41 347 2.0 4.0 0.00 0.00 0.00 80 1008.8
20260507005357 41 334 3.0 4.0 0.00 0.00 0.00 80 1008.8
20260507005257 41 314 3.0 4.0 0.00 0.00 0.00 80 1008.7
20260507004858 41 277 3.0 4.0 0.00 0.00 0.00 81 1008.7
20260507004756 41 284 1.0 7.0 0.00 0.00 0.00 80 1008.8
20260507004557 41 284 2.0 7.0 0.00 0.00 0.00 80 1008.7
20260507004459 41 284 3.0 7.0 0.00 0.00 0.00 80 1008.7
20260507004257 41 285 3.0 7.0 0.00 0.00 0.00 80 1008.6
20260507004159 41 285 0.0 7.0 0.00 0.00 0.00 80 1008.7
20260507004057 41 285 4.0 7.0 0.00 0.00 0.00 80 1008.7
20260507004000 41 284 6.0 7.0 0.00 0.00 0.00 80 1008.7
20260507003857 41 302 5.0 7.0 0.00 0.00 0.00 80 1008.7
20260507003757 41 292 3.0 7.0 0.00 0.00 0.00 79 1008.6
20260507003657 41 282 2.0 7.0 0.00 0.00 0.00 79 1008.7
20260507003557 41 281 2.0 7.0 0.00 0.00 0.00 79 1008.7
20260507003459 41 280 7.0 7.0 0.00 0.00 0.00 79 1008.6
20260507003357 41 286 3.0 7.0 0.00 0.00 0.00 79 1008.6
20260507003257 41 271 4.0 7.0 0.00 0.00 0.00 79 1008.6
20260507003157 41 260 2.0 7.0 0.00 0.00 0.00 78 1008.6
20260507003058 41 260 6.0 7.0 0.00 0.00 0.00 78 1008.6
20260507002758 42 302 5.0 7.0 0.00 0.00 0.00 78 1008.6
20260507002657 42 326 4.0 8.0 0.00 0.00 0.00 78 1008.6
20260507002557 42 275 1.0 8.0 0.00 0.00 0.00 78 1008.6
20260507002458 42 263 4.0 8.0 0.00 0.00 0.00 78 1008.6
20260507002357 42 284 6.0 8.0 0.00 0.00 0.00 79 1008.6
20260507002257 42 297 2.0 8.0 0.00 0.00 0.00 79 1008.6
20260507002158 41 294 1.0 8.0 0.00 0.00 0.00 79 1008.5
20260507002056 41 276 3.0 8.0 0.00 0.00 0.00 79 1008.5
20260507001959 41 304 3.0 8.0 0.00 0.00 0.00 79 1008.5
20260507001858 41 290 4.0 8.0 0.00 0.00 0.00 79 1008.5
20260507001657 41 310 4.0 6.0 0.00 0.00 0.00 80 1008.5
20260507001556 41 350 3.0 6.0 0.00 0.00 0.00 81 1008.5
20260507001459 41 336 3.0 7.0 0.00 0.00 0.00 81 1008.5
20260507001357 41 338 2.0 7.0 0.00 0.00 0.00 81 1008.5
20260507001257 41 340 4.0 8.0 0.00 0.00 0.00 81 1008.5
20260507001158 41 342 3.0 8.0 0.00 0.00 0.00 80 1008.5
20260507001056 41 342 3.0 8.0 0.00 0.00 0.00 80 1008.5
20260507000958 41 343 5.0 8.0 0.00 0.00 0.00 81 1008.5
20260507000857 41 342 3.0 8.0 0.00 0.00 0.00 81 1008.5
20260507000757 41 346 4.0 8.0 0.00 0.00 0.00 81 1008.5
20260507000657 41 317 4.0 8.0 0.00 0.00 0.00 81 1008.5
20260507000557 41 336 3.0 8.0 0.00 0.00 0.00 81 1008.5
20260507000458 41 330 6.0 9.0 0.00 0.00 0.00 81 1008.5
20260507000259 42 294 5.0 9.0 0.00 0.00 0.00 82 1008.5
20260507000157 41 298 3.0 9.0 0.00 0.00 0.00 82 1008.5
20260507000058 41 316 3.0 9.0 0.00 0.00 0.00 81 1008.4
20260507000003 41 315 2.0 9.0 0.00 0.00 0.00 81 1008.5
20260506235858 41 306 2.0 9.0 0.00 0.00 0.00 81 1008.5
20260506235758 41 315 5.0 9.0 0.00 0.00 0.00 81 1008.4
20260506235658 42 296 7.0 9.0 0.00 0.00 0.00 80 1008.5
20260506235500 42 316 4.0 6.0 0.00 0.00 0.00 80 1008.4
20260506235359 42 310 3.0 8.0 0.00 0.00 0.00 80 1008.4
20260506235258 42 311 4.0 8.0 0.00 0.00 0.00 80 1008.4
20260506235059 42 286 3.0 10.0 0.00 0.00 0.00 81 1008.4
20260506235004 42 273 2.0 10.0 0.00 0.00 0.00 80 1008.4
20260506234859 42 270 3.0 10.0 0.00 0.00 0.00 79 1008.4
20260506234758 42 271 3.0 10.0 0.00 0.00 0.00 79 1008.3
20260506234657 42 265 6.0 10.0 0.00 0.00 0.00 79 1008.4
20260506234601 42 286 1.0 10.0 0.00 0.00 0.00 79 1008.4
20260506234401 42 9 7.0 10.0 0.00 0.00 0.00 79 1008.3
20260506234259 42 340 9.0 10.0 0.00 0.00 0.00 79 1008.4
20260506234157 42 333 2.0 10.0 0.00 0.00 0.00 78 1008.3
20260506234059 42 333 8.0 10.0 0.00 0.00 0.00 78 1008.3
20260506234001 42 340 6.0 10.0 0.00 0.00 0.00 78 1008.3
20260506233858 42 312 8.0 10.0 0.00 0.00 0.00 78 1008.3
20260506233758 42 322 6.0 7.0 0.00 0.00 0.00 78 1008.3
20260506233658 42 294 2.0 7.0 0.00 0.00 0.00 78 1008.3
20260506233559 42 293 2.0 7.0 0.00 0.00 0.00 78 1008.2
20260506233500 42 293 1.0 7.0 0.00 0.00 0.00 78 1008.2
20260506233359 42 293 3.0 7.0 0.00 0.00 0.00 78 1008.2
20260506233057 42 306 5.0 11.0 0.00 0.00 0.00 79 1008.3
20260506233000 42 328 1.0 11.0 0.00 0.00 0.00 78 1008.2
20260506232858 42 328 3.0 11.0 0.00 0.00 0.00 78 1008.2
20260506232658 43 360 4.0 11.0 0.00 0.00 0.00 77 1008.2
20260506232559 43 292 4.0 11.0 0.00 0.00 0.00 76 1008.2
20260506232459 43 274 8.0 11.0 0.00 0.00 0.00 75 1008.2
20260506232359 43 340 4.0 11.0 0.00 0.00 0.00 74 1008.2
20260506232259 43 313 4.0 11.0 0.00 0.00 0.00 74 1008.2
20260506232159 43 338 5.0 11.0 0.00 0.00 0.00 72 1008.1
20260506232100 43 321 3.0 11.0 0.00 0.00 0.00 69 1008.1
20260506232001 44 342 8.0 11.0 0.00 0.00 0.00 69 1008.1
20260506231858 44 355 6.0 11.0 0.00 0.00 0.00 69 1008.1
20260506231758 44 327 9.0 11.0 0.00 0.00 0.00 68 1008.0
20260506231657 44 303 3.0 11.0 0.00 0.00 0.00 68 1008.1
20260506231558 44 301 7.0 11.0 0.00 0.00 0.00 66 1008.1
20260506231504 45 317 10.0 11.0 0.00 0.00 0.00 65 1008.0
20260506231359 45 259 2.0 11.0 0.00 0.00 0.00 65 1008.0
20260506231258 45 266 11.0 11.0 0.00 0.00 0.00 65 1008.0
20260506231158 45 302 5.0 8.0 0.00 0.00 0.00 65 1008.1
20260506231003 46 327 1.0 8.0 0.00 0.00 0.00 60 1008.0
20260506230858 46 336 6.0 8.0 0.00 0.00 0.00 56 1008.0
20260506230759 46 153 2.0 6.0 0.00 0.00 0.00 55 1008.0
20260506230558 46 181 2.0 6.0 0.00 0.00 0.00 55 1008.0
20260506230500 46 159 5.0 10.0 0.00 0.00 0.00 55 1008.0
20260506230358 46 141 7.0 10.0 0.00 0.00 0.00 56 1007.9
20260506230258 46 130 1.0 10.0 0.00 0.00 0.00 55 1007.9
20260506230157 46 130 2.0 10.0 0.00 0.00 0.00 55 1008.0
20260506230058 46 130 5.0 10.0 0.00 0.00 0.00 56 1007.9
20260506225858 46 126 2.0 10.0 0.00 0.00 0.00 55 1007.9
20260506225757 46 130 5.0 11.0 0.00 0.00 0.00 56 1007.9
20260506225557 46 113 4.0 11.0 0.00 0.00 0.00 56 1007.9
20260506225458 46 103 7.0 11.0 0.00 0.00 0.00 55 1007.9
20260506225357 46 125 5.0 12.0 0.00 0.00 0.00 56 1007.8
20260506225257 46 123 5.0 12.0 0.00 0.00 0.00 57 1007.8
20260506225156 46 135 3.0 12.0 0.00 0.00 0.00 56 1007.9
20260506225057 46 121 4.0 12.0 0.00 0.00 0.00 56 1007.9
20260506224958 46 113 8.0 12.0 0.00 0.00 0.00 56 1007.8
20260506224857 46 110 8.0 12.0 0.00 0.00 0.00 57 1007.8
20260506224757 46 84 2.0 12.0 0.00 0.00 0.00 57 1007.9
20260506224556 46 53 5.0 12.0 0.00 0.00 0.00 56 1007.8
20260506224459 46 119 8.0 12.0 0.00 0.00 0.00 57 1007.8
20260506224357 46 100 7.0 12.0 0.00 0.00 0.00 56 1007.8
20260506224257 47 119 10.0 12.0 0.00 0.00 0.00 57 1007.8
20260506224157 47 103 10.0 11.0 0.00 0.00 0.00 57 1007.8
20260506224057 47 40 6.0 11.0 0.00 0.00 0.00 57 1007.8
20260506224000 47 125 8.0 11.0 0.00 0.00 0.00 57 1007.8
20260506223857 46 138 3.0 6.0 0.00 0.00 0.00 58 1007.7
20260506223756 46 208 1.0 4.0 0.00 0.00 0.00 58 1007.7
20260506223657 46 207 2.0 4.0 0.00 0.00 0.00 58 1007.8
20260506223556 46 207 0.0 4.0 0.00 0.00 0.00 58 1007.7
20260506223357 46 207 1.0 4.0 0.00 0.00 0.00 60 1007.7
20260506223257 46 207 1.0 4.0 0.00 0.00 0.00 57 1007.7
20260506222958 46 191 4.0 4.0 0.00 0.00 0.00 58 1007.7
20260506222858 46 191 2.0 4.0 0.00 0.00 0.00 58 1007.8
20260506222657 46 191 2.0 5.0 0.00 0.00 0.00 58 1007.7
20260506222558 46 191 0.0 6.0 0.00 0.00 0.00 58 1007.7
20260506222459 46 191 4.0 6.0 0.00 0.00 0.00 57 1007.7
20260506222257 45 191 2.0 8.0 0.00 0.00 0.00 59 1007.7
20260506222157 45 191 0.0 8.0 0.00 0.00 0.00 59 1007.7
20260506221959 45 191 1.0 8.0 0.00 0.00 0.00 58 1007.7
20260506221856 45 191 5.0 8.0 0.00 0.00 0.00 57 1007.7
20260506221757 45 203 1.0 8.0 0.00 0.00 0.00 57 1007.7
20260506221659 45 221 3.0 8.0 0.00 0.00 0.00 58 1007.7
20260506221558 45 166 4.0 8.0 0.00 0.00 0.00 58 1007.7
20260506221500 45 154 6.0 6.0 0.00 0.00 0.00 60 1007.7
20260506221257 45 223 2.0 8.0 0.00 0.00 0.00 61 1007.6
20260506221156 45 288 1.0 8.0 0.00 0.00 0.00 60 1007.6
20260506221057 45 296 2.0 8.0 0.00 0.00 0.00 62 1007.7
20260506220959 45 301 4.0 8.0 0.00 0.00 0.00 64 1007.6
20260506220857 45 251 0.0 8.0 0.00 0.00 0.00 64 1007.7
20260506220757 45 251 2.0 8.0 0.00 0.00 0.00 64 1007.6
20260506220657 45 275 3.0 8.0 0.00 0.00 0.00 64 1007.6
20260506220557 45 321 2.0 8.0 0.00 0.00 0.00 63 1007.6
20260506220459 45 5 2.0 5.0 0.00 0.00 0.00 64 1007.6
20260506220258 45 355 3.0 5.0 0.00 0.00 0.00 64 1007.6
20260506220157 45 259 3.0 3.0 0.00 0.00 0.00 65 1007.6
20260506220058 45 259 1.0 4.0 0.00 0.00 0.00 65 1007.6
20260506215856 45 259 1.0 4.0 0.00 0.00 0.00 65 1007.6
20260506215657 45 259 0.0 4.0 0.00 0.00 0.00 65 1007.6
20260506215556 45 259 0.0 4.0 0.00 0.00 0.00 66 1007.6
20260506215458 45 259 1.0 5.0 0.00 0.00 0.00 64 1007.6
20260506215257 45 248 3.0 5.0 0.00 0.00 0.00 64 1007.6
20260506215158 45 240 0.0 5.0 0.00 0.00 0.00 64 1007.6
20260506215057 45 240 2.0 6.0 0.00 0.00 0.00 64 1007.6
20260506214958 45 240 1.0 6.0 0.00 0.00 0.00 64 1007.6
20260506214857 45 240 0.0 6.0 0.00 0.00 0.00 64 1007.6
20260506214757 45 240 2.0 6.0 0.00 0.00 0.00 63 1007.6
20260506214657 45 240 3.0 6.0 0.00 0.00 0.00 64 1007.5
20260506214557 45 237 4.0 6.0 0.00 0.00 0.00 64 1007.6
20260506214500 45 190 1.0 6.0 0.00 0.00 0.00 64 1007.5
20260506214358 45 190 1.0 6.0 0.00 0.00 0.00 63 1007.5
20260506214258 45 190 2.0 6.0 0.00 0.00 0.00 64 1007.5
20260506214157 45 324 1.0 6.0 0.00 0.00 0.00 65 1007.5
20260506213959 45 324 0.0 11.0 0.00 0.00 0.00 64 1007.5
20260506213857 45 324 1.0 11.0 0.00 0.00 0.00 64 1007.5
20260506213756 45 324 1.0 11.0 0.00 0.00 0.00 63 1007.5
20260506213657 45 324 3.0 11.0 0.00 0.00 0.00 64 1007.5
20260506213556 45 32 2.0 11.0 0.00 0.00 0.00 64 1007.5
20260506213459 45 52 4.0 11.0 0.00 0.00 0.00 64 1007.5
20260506213357 45 26 3.0 11.0 0.00 0.00 0.00 63 1007.4
20260506213257 45 52 2.0 11.0 0.00 0.00 0.00 63 1007.4
20260506213157 45 119 4.0 11.0 0.00 0.00 0.00 63 1007.4
20260506213057 44 58 7.0 11.0 0.00 0.00 0.00 64 1007.4
20260506212859 44 16 2.0 8.0 0.00 0.00 0.00 68 1007.4
20260506212757 44 9 4.0 8.0 0.00 0.00 0.00 67 1007.4
20260506212657 44 22 4.0 8.0 0.00 0.00 0.00 67 1007.4
20260506212459 44 314 1.0 8.0 0.00 0.00 0.00 71 1007.4
20260506212356 44 334 5.0 8.0 0.00 0.00 0.00 70 1007.4
20260506212256 44 336 6.0 8.0 0.00 0.00 0.00 70 1007.4
20260506212157 44 338 4.0 8.0 0.00 0.00 0.00 70 1007.4
20260506211959 44 351 2.0 8.0 0.00 0.00 0.00 69 1007.4
20260506211857 44 290 2.0 8.0 0.00 0.00 0.00 70 1007.4
20260506211757 44 294 2.0 8.0 0.00 0.00 0.00 69 1007.4
20260506211657 44 296 4.0 9.0 0.00 0.00 0.00 69 1007.4
20260506211559 44 301 5.0 9.0 0.00 0.00 0.00 69 1007.4
20260506211458 44 325 3.0 9.0 0.00 0.00 0.00 70 1007.4
20260506211357 44 280 4.0 9.0 0.00 0.00 0.00 70 1007.4
20260506211257 44 288 3.0 9.0 0.00 0.00 0.00 71 1007.4
20260506211157 44 288 7.0 9.0 0.00 0.00 0.00 70 1007.4
20260506211057 44 284 4.0 9.0 0.00 0.00 0.00 70 1007.4
20260506210757 44 344 1.0 9.0 0.00 0.00 0.00 71 1007.3
20260506210657 44 287 1.0 9.0 0.00 0.00 0.00 71 1007.3
20260506210557 44 289 2.0 9.0 0.00 0.00 0.00 71 1007.3
20260506210459 44 306 5.0 9.0 0.00 0.00 0.00 71 1007.3
20260506210357 44 282 3.0 9.0 0.00 0.00 0.00 73 1007.3
20260506210257 44 351 3.0 9.0 0.00 0.00 0.00 73 1007.3
20260506210158 44 314 3.0 9.0 0.00 0.00 0.00 72 1007.3
20260506210057 44 268 4.0 9.0 0.00 0.00 0.00 72 1007.2
20260506210000 44 340 3.0 9.0 0.00 0.00 0.00 72 1007.2
20260506205756 44 320 5.0 8.0 0.00 0.00 0.00 72 1007.2
20260506205657 44 325 5.0 8.0 0.00 0.00 0.00 72 1007.2
20260506205558 44 267 2.0 8.0 0.00 0.00 0.00 71 1007.3
20260506205459 44 290 5.0 8.0 0.00 0.00 0.00 71 1007.3
20260506205257 44 318 4.0 8.0 0.00 0.00 0.00 71 1007.2
20260506205157 44 336 3.0 8.0 0.00 0.00 0.00 70 1007.2
20260506204958 44 327 4.0 8.0 0.00 0.00 0.00 71 1007.2
20260506204856 44 292 3.0 8.0 0.00 0.00 0.00 71 1007.2
20260506204756 43 234 2.0 8.0 0.00 0.00 0.00 71 1007.2
20260506204657 43 233 3.0 8.0 0.00 0.00 0.00 70 1007.2
20260506204557 44 234 4.0 8.0 0.00 0.00 0.00 71 1007.2
20260506204500 44 232 6.0 8.0 0.00 0.00 0.00 71 1007.2
20260506204358 44 273 4.0 7.0 0.00 0.00 0.00 72 1007.1
20260506204256 43 273 1.0 8.0 0.00 0.00 0.00 71 1007.2
20260506204157 44 290 2.0 10.0 0.00 0.00 0.00 71 1007.2
20260506204056 43 283 4.0 10.0 0.00 0.00 0.00 71 1007.2
20260506204000 44 281 3.0 10.0 0.00 0.00 0.00 72 1007.1
20260506203858 43 286 2.0 10.0 0.00 0.00 0.00 73 1007.1
20260506203757 43 283 3.0 10.0 0.00 0.00 0.00 72 1007.1
20260506203657 43 333 3.0 10.0 0.00 0.00 0.00 72 1007.1
20260506203459 44 333 4.0 10.0 0.00 0.00 0.00 72 1007.1
20260506203358 44 315 8.0 10.0 0.00 0.00 0.00 72 1007.1
20260506203257 44 319 5.0 10.0 0.00 0.00 0.00 73 1007.1
20260506203158 44 302 2.0 10.0 0.00 0.00 0.00 73 1007.1
20260506203000 44 301 7.0 11.0 0.00 0.00 0.00 73 1007.0
20260506202858 44 275 4.0 11.0 0.00 0.00 0.00 73 1007.0
20260506202757 44 269 4.0 11.0 0.00 0.00 0.00 74 1007.0
20260506202657 44 298 5.0 11.0 0.00 0.00 0.00 74 1007.0
20260506202558 43 276 2.0 11.0 0.00 0.00 0.00 74 1007.0
20260506202459 43 273 3.0 11.0 0.00 0.00 0.00 74 1007.0
20260506202357 43 296 5.0 11.0 0.00 0.00 0.00 75 1007.0
20260506202257 43 290 5.0 11.0 0.00 0.00 0.00 75 1006.9
20260506202158 43 304 8.0 11.0 0.00 0.00 0.00 74 1006.9
20260506202057 43 243 9.0 11.0 0.00 0.00 0.00 74 1006.9
20260506201857 43 271 7.0 10.0 0.00 0.00 0.00 74 1006.9
20260506201757 43 253 10.0 10.0 0.00 0.00 0.00 74 1006.8
20260506201657 43 238 3.0 9.0 0.00 0.00 0.00 73 1006.9
20260506201557 43 238 4.0 9.0 0.00 0.00 0.00 74 1006.9
20260506201458 43 271 3.0 9.0 0.00 0.00 0.00 74 1006.9
20260506201356 43 274 6.0 9.0 0.00 0.00 0.00 74 1007.0
20260506201256 43 300 2.0 9.0 0.00 0.00 0.00 74 1006.9
20260506201057 43 282 6.0 9.0 0.00 0.00 0.00 74 1006.9
20260506200959 43 294 5.0 9.0 0.00 0.00 0.00 73 1006.9
20260506200858 43 282 9.0 9.0 0.00 0.00 0.00 73 1006.9
20260506200756 43 280 7.0 8.0 0.00 0.00 0.00 73 1006.8
20260506200557 44 355 6.0 8.0 0.00 0.00 0.00 72 1006.8
20260506200459 44 323 6.0 8.0 0.00 0.00 0.00 73 1006.8
20260506200357 44 329 4.0 8.0 0.00 0.00 0.00 73 1006.8
20260506200256 44 323 6.0 6.0 0.00 0.00 0.00 73 1006.8
20260506200157 44 300 3.0 6.0 0.00 0.00 0.00 73 1006.8
20260506200057 44 294 3.0 5.0 0.00 0.00 0.00 73 1006.7
20260506195959 44 311 3.0 5.0 0.00 0.00 0.00 72 1006.7
20260506195856 44 309 3.0 5.0 0.00 0.00 0.00 73 1006.8
20260506195657 43 259 1.0 8.0 0.00 0.00 0.00 72 1006.8
20260506195558 43 347 0.0 8.0 0.00 0.00 0.00 72 1006.8
20260506195458 43 347 0.0 8.0 0.00 0.00 0.00 72 1006.8
20260506195158 43 347 2.0 8.0 0.00 0.00 0.00 72 1006.7
20260506195057 43 350 2.0 8.0 0.00 0.00 0.00 73 1006.7
20260506195000 43 349 5.0 8.0 0.00 0.00 0.00 74 1006.8
20260506194857 43 298 3.0 8.0 0.00 0.00 0.00 73 1006.7
20260506194757 43 334 5.0 8.0 0.00 0.00 0.00 73 1006.7
20260506194500 43 32 4.0 8.0 0.00 0.00 0.00 74 1006.7
20260506194356 43 290 2.0 8.0 0.00 0.00 0.00 74 1006.7
20260506194258 43 290 3.0 8.0 0.00 0.00 0.00 75 1006.7
20260506194157 43 323 2.0 8.0 0.00 0.00 0.00 74 1006.7
20260506194056 43 340 8.0 8.0 0.00 0.00 0.00 74 1006.7
20260506193959 43 327 3.0 7.0 0.00 0.00 0.00 73 1006.7
20260506193758 42 350 1.0 6.0 0.00 0.00 0.00 73 1006.8
20260506193557 42 321 2.0 7.0 0.00 0.00 0.00 74 1006.7
20260506193458 42 290 2.0 7.0 0.00 0.00 0.00 74 1006.7
20260506193358 42 290 3.0 7.0 0.00 0.00 0.00 74 1006.7
20260506193157 42 287 1.0 7.0 0.00 0.00 0.00 73 1006.7
20260506193057 42 287 0.0 7.0 0.00 0.00 0.00 73 1006.7
20260506192958 42 287 2.0 7.0 0.00 0.00 0.00 73 1006.7
20260506192856 42 286 1.0 7.0 0.00 0.00 0.00 74 1006.7
20260506192757 42 288 3.0 7.0 0.00 0.00 0.00 75 1006.7
20260506192557 42 256 7.0 7.0 0.00 0.00 0.00 74 1006.7
20260506192459 42 279 3.0 5.0 0.00 0.00 0.00 74 1006.7
20260506192356 41 279 3.0 6.0 0.00 0.00 0.00 74 1006.7
20260506192256 41 278 1.0 5.0 0.00 0.00 0.00 75 1006.7
20260506192057 41 280 2.0 5.0 0.00 0.00 0.00 74 1006.7
20260506191958 41 280 1.0 5.0 0.00 0.00 0.00 74 1006.7
20260506191857 41 280 3.0 5.0 0.00 0.00 0.00 74 1006.7
20260506191757 41 281 1.0 5.0 0.00 0.00 0.00 74 1006.7
20260506191557 41 284 2.0 6.0 0.00 0.00 0.00 75 1006.7
20260506191458 41 284 2.0 6.0 0.00 0.00 0.00 75 1006.7
20260506191357 41 279 6.0 6.0 0.00 0.00 0.00 75 1006.7
20260506191257 41 287 0.0 6.0 0.00 0.00 0.00 75 1006.8
20260506191157 41 271 3.0 6.0 0.00 0.00 0.00 76 1006.7
20260506191057 41 279 4.0 6.0 0.00 0.00 0.00 76 1006.7
20260506190958 41 334 3.0 6.0 0.00 0.00 0.00 76 1006.7
20260506190657 41 275 2.0 7.0 0.00 0.00 0.00 76 1006.7
20260506190558 41 271 2.0 7.0 0.00 0.00 0.00 76 1006.7
20260506190458 41 271 3.0 7.0 0.00 0.00 0.00 76 1006.7
20260506190357 41 271 1.0 7.0 0.00 0.00 0.00 76 1006.7
20260506190258 41 271 4.0 7.0 0.00 0.00 0.00 78 1006.7
20260506190157 41 300 4.0 5.0 0.00 0.00 0.00 77 1006.7
20260506190057 41 5 4.0 5.0 0.00 0.00 0.00 77 1006.7
20260506185958 41 286 1.0 5.0 0.00 0.00 0.00 76 1006.7
20260506185858 41 286 4.0 6.0 0.00 0.00 0.00 77 1006.7
20260506185756 40 348 4.0 4.0 0.00 0.00 0.00 77 1006.7
20260506185657 40 5 0.0 4.0 0.00 0.00 0.00 77 1006.7
20260506185556 40 9 1.0 4.0 0.00 0.00 0.00 77 1006.7
20260506185356 40 9 0.0 6.0 0.00 0.00 0.00 77 1006.7
20260506185257 40 5 2.0 6.0 0.00 0.00 0.00 76 1006.7
20260506185156 40 9 2.0 6.0 0.00 0.00 0.00 77 1006.7
20260506185057 40 5 2.0 6.0 0.00 0.00 0.00 77 1006.6
20260506184959 40 9 4.0 6.0 0.00 0.00 0.00 77 1006.7
20260506184857 40 5 3.0 6.0 0.00 0.00 0.00 78 1006.6
20260506184757 40 5 2.0 6.0 0.00 0.00 0.00 78 1006.7
20260506184657 40 9 2.0 6.0 0.00 0.00 0.00 78 1006.7
20260506184557 40 348 5.0 6.0 0.00 0.00 0.00 77 1006.7
20260506184459 40 302 3.0 6.0 0.00 0.00 0.00 77 1006.7
20260506184358 40 301 1.0 6.0 0.00 0.00 0.00 77 1006.7
20260506184258 40 301 1.0 6.0 0.00 0.00 0.00 77 1006.7
20260506184158 40 302 3.0 6.0 0.00 0.00 0.00 77 1006.7
20260506184056 40 301 1.0 6.0 0.00 0.00 0.00 78 1006.7
20260506183857 40 301 3.0 7.0 0.00 0.00 0.00 77 1006.7
20260506183757 40 301 2.0 7.0 0.00 0.00 0.00 77 1006.6
20260506183656 40 304 4.0 7.0 0.00 0.00 0.00 78 1006.7
20260506183557 40 307 3.0 7.0 0.00 0.00 0.00 78 1006.7
20260506183458 40 306 2.0 7.0 0.00 0.00 0.00 78 1006.7
20260506183357 40 306 2.0 7.0 0.00 0.00 0.00 78 1006.6
20260506183257 40 306 2.0 7.0 0.00 0.00 0.00 78 1006.6
20260506183158 40 306 4.0 7.0 0.00 0.00 0.00 78 1006.6
20260506183056 40 265 3.0 7.0 0.00 0.00 0.00 78 1006.6
20260506182958 40 232 5.0 8.0 0.00 0.00 0.00 78 1006.6
20260506182859 40 269 4.0 8.0 0.00 0.00 0.00 78 1006.6
20260506182557 40 286 6.0 8.0 0.00 0.00 0.00 78 1006.6
20260506182458 40 287 4.0 5.0 0.00 0.00 0.00 78 1006.6
20260506182258 40 327 2.0 5.0 0.00 0.00 0.00 78 1006.6
20260506182157 40 327 3.0 5.0 0.00 0.00 0.00 78 1006.6
20260506181857 40 312 0.0 5.0 0.00 0.00 0.00 78 1006.6
20260506181757 40 312 1.0 5.0 0.00 0.00 0.00 78 1006.6
20260506181657 40 312 1.0 5.0 0.00 0.00 0.00 78 1006.6
20260506181557 40 312 2.0 5.0 0.00 0.00 0.00 78 1006.6
20260506181458 40 311 3.0 5.0 0.00 0.00 0.00 78 1006.6
20260506181157 40 275 6.0 6.0 0.00 0.00 0.00 79 1006.5
20260506181000 39 275 2.0 6.0 0.00 0.00 0.00 79 1006.5
20260506180858 39 297 3.0 6.0 0.00 0.00 0.00 79 1006.4
20260506180756 39 299 4.0 6.0 0.00 0.00 0.00 79 1006.4
20260506180657 39 302 1.0 6.0 0.00 0.00 0.00 79 1006.5
20260506180557 39 302 3.0 6.0 0.00 0.00 0.00 78 1006.4
20260506180458 39 302 3.0 6.0 0.00 0.00 0.00 78 1006.4
20260506180357 39 290 4.0 7.0 0.00 0.00 0.00 78 1006.4
20260506180256 39 291 7.0 7.0 0.00 0.00 0.00 79 1006.5
20260506180157 39 286 3.0 6.0 0.00 0.00 0.00 79 1006.4
20260506180057 39 294 4.0 5.0 0.00 0.00 0.00 79 1006.5
20260506175757 39 300 1.0 5.0 0.00 0.00 0.00 79 1006.4
20260506175658 39 306 2.0 5.0 0.00 0.00 0.00 79 1006.4
20260506175458 39 306 1.0 5.0 0.00 0.00 0.00 78 1006.4
20260506175256 39 306 3.0 5.0 0.00 0.00 0.00 79 1006.4
20260506175157 39 313 3.0 5.0 0.00 0.00 0.00 79 1006.4
20260506175057 39 298 2.0 5.0 0.00 0.00 0.00 79 1006.3
20260506174958 39 298 2.0 5.0 0.00 0.00 0.00 78 1006.3
20260506174858 39 298 4.0 5.0 0.00 0.00 0.00 78 1006.3
20260506174756 39 300 5.0 5.0 0.00 0.00 0.00 78 1006.3
20260506174656 39 319 4.0 5.0 0.00 0.00 0.00 78 1006.3
20260506174458 39 281 4.0 4.0 0.00 0.00 0.00 78 1006.3
20260506174258 39 309 0.0 4.0 0.00 0.00 0.00 78 1006.3
20260506174158 39 309 0.0 4.0 0.00 0.00 0.00 78 1006.4
20260506174057 39 309 2.0 4.0 0.00 0.00 0.00 78 1006.3
20260506173959 39 309 3.0 4.0 0.00 0.00 0.00 78 1006.3
20260506173757 39 320 0.0 3.0 0.00 0.00 0.00 78 1006.3
20260506173657 39 320 1.0 3.0 0.00 0.00 0.00 78 1006.3
20260506173557 39 320 1.0 3.0 0.00 0.00 0.00 78 1006.3
20260506173458 39 323 2.0 3.0 0.00 0.00 0.00 78 1006.3
20260506173357 39 328 2.0 3.0 0.00 0.00 0.00 79 1006.4
20260506173157 39 329 0.0 3.0 0.00 0.00 0.00 78 1006.3
20260506173057 39 329 0.0 3.0 0.00 0.00 0.00 78 1006.3
20260506172958 39 329 2.0 3.0 0.00 0.00 0.00 78 1006.3
20260506172857 39 329 3.0 3.0 0.00 0.00 0.00 78 1006.3
20260506172758 39 329 1.0 3.0 0.00 0.00 0.00 78 1006.3
20260506172657 39 329 0.0 3.0 0.00 0.00 0.00 77 1006.3
20260506172558 39 329 1.0 3.0 0.00 0.00 0.00 77 1006.3
20260506172458 39 338 2.0 3.0 0.00 0.00 0.00 77 1006.3
20260506172357 39 339 3.0 3.0 0.00 0.00 0.00 77 1006.2
20260506172256 39 345 0.0 3.0 0.00 0.00 0.00 78 1006.2
20260506172156 39 346 1.0 3.0 0.00 0.00 0.00 78 1006.3
20260506172057 39 346 0.0 3.0 0.00 0.00 0.00 78 1006.2
20260506172000 39 346 0.0 4.0 0.00 0.00 0.00 78 1006.2
20260506171856 39 346 0.0 4.0 0.00 0.00 0.00 78 1006.2
20260506171757 39 346 1.0 4.0 0.00 0.00 0.00 77 1006.1
20260506171657 39 345 3.0 4.0 0.00 0.00 0.00 77 1006.2
20260506171558 39 355 2.0 4.0 0.00 0.00 0.00 78 1006.1
20260506171357 39 355 2.0 4.0 0.00 0.00 0.00 77 1006.1
20260506171157 39 355 2.0 4.0 0.00 0.00 0.00 78 1006.1
20260506171056 39 10 2.0 2.0 0.00 0.00 0.00 78 1006.1
20260506170959 39 10 1.0 2.0 0.00 0.00 0.00 78 1006.1
20260506170856 39 10 1.0 2.0 0.00 0.00 0.00 78 1006.1
20260506170757 39 10 1.0 2.0 0.00 0.00 0.00 78 1006.1
20260506170658 39 10 1.0 2.0 0.00 0.00 0.00 78 1006.1
20260506170458 39 10 0.0 2.0 0.00 0.00 0.00 78 1006.1
20260506170357 39 10 0.0 2.0 0.00 0.00 0.00 78 1006.1
20260506170300 39 10 0.0 2.0 0.00 0.00 0.00 78 1006.1
20260506170157 38 10 2.0 2.0 0.00 0.00 0.00 78 1006.1
20260506170057 39 10 0.0 2.0 0.00 0.00 0.00 78 1006.1
20260506170000 39 10 0.0 2.0 0.00 0.00 0.00 78 1006.1
20260506165858 38 10 0.0 2.0 0.00 0.00 0.00 78 1006.1
20260506165757 38 10 1.0 2.0 0.00 0.00 0.00 78 1006.1
20260506165657 38 10 0.0 2.0 0.00 0.00 0.00 78 1006.1
20260506165556 38 10 1.0 3.0 0.00 0.00 0.00 78 1006.1
20260506165458 38 10 2.0 3.0 0.00 0.00 0.00 78 1006.0
20260506165357 38 11 1.0 3.0 0.00 0.00 0.00 78 1006.0
20260506165256 38 10 0.0 3.0 0.00 0.00 0.00 78 1006.1
20260506165157 38 10 0.0 3.0 0.00 0.00 0.00 78 1006.1
20260506165056 38 10 0.0 3.0 0.00 0.00 0.00 78 1006.0
20260506164959 38 10 1.0 3.0 0.00 0.00 0.00 78 1006.0
20260506164856 38 10 1.0 3.0 0.00 0.00 0.00 78 1006.0
20260506164757 39 10 1.0 3.0 0.00 0.00 0.00 78 1006.0
20260506164656 39 10 1.0 2.0 0.00 0.00 0.00 78 1006.0
20260506164557 38 10 1.0 2.0 0.00 0.00 0.00 78 1006.0
20260506164458 39 10 1.0 2.0 0.00 0.00 0.00 78 1006.0
20260506164358 39 10 1.0 2.0 0.00 0.00 0.00 78 1006.0
20260506164156 38 10 0.0 2.0 0.00 0.00 0.00 78 1006.0
20260506164057 39 10 1.0 2.0 0.00 0.00 0.00 78 1005.9
20260506163958 38 10 2.0 3.0 0.00 0.00 0.00 78 1005.9
20260506163858 39 10 0.0 3.0 0.00 0.00 0.00 78 1005.9
20260506163758 38 10 1.0 3.0 0.00 0.00 0.00 78 1005.9
20260506163657 38 10 0.0 3.0 0.00 0.00 0.00 78 1005.9
20260506163557 38 10 1.0 3.0 0.00 0.00 0.00 78 1005.9
20260506163356 38 10 1.0 3.0 0.00 0.00 0.00 78 1005.9
20260506163256 38 10 1.0 3.0 0.00 0.00 0.00 78 1005.9
20260506163157 38 10 2.0 3.0 0.00 0.00 0.00 79 1005.8
20260506163058 38 10 1.0 2.0 0.00 0.00 0.00 78 1005.8
20260506162959 38 10 1.0 2.0 0.00 0.00 0.00 78 1005.8
20260506162857 38 10 0.0 2.0 0.00 0.00 0.00 78 1005.8
20260506162757 38 10 1.0 2.0 0.00 0.00 0.00 78 1005.8
20260506162657 38 11 1.0 2.0 0.00 0.00 0.00 78 1005.7
20260506162556 38 11 1.0 2.0 0.00 0.00 0.00 78 1005.7
20260506162357 38 11 0.0 2.0 0.00 0.00 0.00 78 1005.7
20260506162257 38 11 1.0 2.0 0.00 0.00 0.00 78 1005.7
20260506162156 38 11 1.0 2.0 0.00 0.00 0.00 79 1005.7
20260506162057 38 11 1.0 1.0 0.00 0.00 0.00 79 1005.7
20260506161959 38 11 0.0 1.0 0.00 0.00 0.00 80 1005.7
20260506161856 38 11 0.0 1.0 0.00 0.00 0.00 80 1005.7
20260506161757 38 11 0.0 1.0 0.00 0.00 0.00 80 1005.7
20260506161657 38 11 1.0 1.0 0.00 0.00 0.00 80 1005.7
20260506161556 38 11 1.0 1.0 0.00 0.00 0.00 80 1005.7
20260506161459 37 11 0.0 1.0 0.00 0.00 0.00 80 1005.7
20260506161357 37 11 0.0 1.0 0.00 0.00 0.00 80 1005.7
20260506161257 37 10 0.0 1.0 0.00 0.00 0.00 80 1005.7
20260506161157 37 10 0.0 1.0 0.00 0.00 0.00 80 1005.7
20260506161056 37 10 1.0 2.0 0.00 0.00 0.00 80 1005.7
20260506160957 37 11 1.0 2.0 0.00 0.00 0.00 80 1005.7
20260506160857 37 10 0.0 2.0 0.00 0.00 0.00 80 1005.7
20260506160758 37 11 0.0 2.0 0.00 0.00 0.00 80 1005.7
20260506160556 37 11 0.0 2.0 0.00 0.00 0.00 80 1005.6
20260506160357 37 11 0.0 2.0 0.00 0.00 0.00 80 1005.7
20260506160257 37 11 0.0 2.0 0.00 0.00 0.00 80 1005.6
20260506160056 37 10 0.0 2.0 0.00 0.00 0.00 80 1005.6
20260506160000 37 10 0.0 2.0 0.00 0.00 0.00 80 1005.6
20260506155857 37 10 0.0 2.0 0.00 0.00 0.00 80 1005.7
20260506155756 37 10 0.0 2.0 0.00 0.00 0.00 80 1005.6
20260506155656 37 10 0.0 2.0 0.00 0.00 0.00 80 1005.7
20260506155558 37 10 1.0 2.0 0.00 0.00 0.00 80 1005.6
20260506155459 37 10 0.0 2.0 0.00 0.00 0.00 80 1005.6
20260506155356 37 10 2.0 2.0 0.00 0.00 0.00 80 1005.6
20260506155158 37 10 0.0 1.0 0.00 0.00 0.00 80 1005.6
20260506154959 37 10 0.0 1.0 0.00 0.00 0.00 80 1005.6
20260506154858 37 10 0.0 1.0 0.00 0.00 0.00 80 1005.6
20260506154756 37 10 0.0 1.0 0.00 0.00 0.00 80 1005.6
20260506154657 37 10 0.0 1.0 0.00 0.00 0.00 80 1005.6
20260506154557 37 10 0.0 1.0 0.00 0.00 0.00 80 1005.6
20260506154459 37 10 0.0 1.0 0.00 0.00 0.00 80 1005.6
20260506154357 37 10 0.0 2.0 0.00 0.00 0.00 80 1005.6
20260506154257 37 10 0.0 2.0 0.00 0.00 0.00 80 1005.6
20260506154157 37 10 1.0 2.0 0.00 0.00 0.00 80 1005.6
20260506153957 37 10 0.0 2.0 0.00 0.00 0.00 80 1005.6
20260506153856 37 10 0.0 2.0 0.00 0.00 0.00 80 1005.6
20260506153657 37 10 0.0 2.0 0.00 0.00 0.00 80 1005.6
20260506153557 37 10 2.0 3.0 0.00 0.00 0.00 80 1005.6
20260506153459 37 10 0.0 3.0 0.00 0.00 0.00 80 1005.5
20260506153256 37 10 1.0 3.0 0.00 0.00 0.00 80 1005.5
20260506153156 37 10 1.0 4.0 0.00 0.00 0.00 80 1005.5
20260506152958 37 10 1.0 4.0 0.00 0.00 0.00 81 1005.6
20260506152856 37 10 1.0 4.0 0.00 0.00 0.00 83 1005.6
20260506152758 37 10 1.0 4.0 0.00 0.00 0.00 80 1005.6
20260506152656 37 10 2.0 5.0 0.00 0.00 0.00 79 1005.6
20260506152557 37 10 2.0 5.0 0.00 0.00 0.00 80 1005.6
20260506152458 37 10 2.0 5.0 0.00 0.00 0.00 80 1005.6
20260506152357 37 11 1.0 5.0 0.00 0.00 0.00 82 1005.5
20260506152257 37 11 4.0 5.0 0.00 0.00 0.00 81 1005.5
20260506152156 37 10 2.0 5.0 0.00 0.00 0.00 80 1005.5
20260506152056 37 10 3.0 5.0 0.00 0.00 0.00 80 1005.5
20260506151959 37 10 4.0 5.0 0.00 0.00 0.00 79 1005.5
20260506151857 37 11 4.0 5.0 0.00 0.00 0.00 79 1005.6
20260506151757 37 15 3.0 5.0 0.00 0.00 0.00 79 1005.5
20260506151656 37 360 3.0 5.0 0.00 0.00 0.00 79 1005.5
20260506151556 37 9 3.0 5.0 0.00 0.00 0.00 79 1005.5
20260506151458 37 350 3.0 5.0 0.00 0.00 0.00 78 1005.5
20260506151357 37 339 4.0 4.0 0.00 0.00 0.00 78 1005.5
20260506151257 37 109 2.0 3.0 0.00 0.00 0.00 78 1005.5
20260506151156 37 133 2.0 3.0 0.00 0.00 0.00 78 1005.5
20260506151058 37 142 1.0 3.0 0.00 0.00 0.00 77 1005.5
20260506150959 37 142 2.0 2.0 0.00 0.00 0.00 76 1005.5
20260506150756 37 142 1.0 2.0 0.00 0.00 0.00 76 1005.5
20260506150656 37 142 1.0 2.0 0.00 0.00 0.00 76 1005.5
20260506150558 37 142 1.0 1.0 0.00 0.00 0.00 77 1005.5
20260506150500 37 142 0.0 2.0 0.00 0.00 0.00 77 1005.5
20260506150358 37 142 0.0 2.0 0.00 0.00 0.00 77 1005.4
20260506150304 37 142 1.0 2.0 0.00 0.00 0.00 76 1005.4
20260506150158 37 142 1.0 2.0 0.00 0.00 0.00 77 1005.4
20260506150056 37 142 0.0 2.0 0.00 0.00 0.00 77 1005.4
20260506145958 37 142 0.0 2.0 0.00 0.00 0.00 76 1005.4
20260506145657 37 142 1.0 2.0 0.00 0.00 0.00 75 1005.4
20260506145556 38 142 2.0 2.0 0.00 0.00 0.00 75 1005.4
20260506145459 38 142 1.0 1.0 0.00 0.00 0.00 75 1005.3
20260506145358 38 142 0.0 1.0 0.00 0.00 0.00 75 1005.3
20260506145257 38 142 0.0 2.0 0.00 0.00 0.00 75 1005.3
20260506145157 38 142 0.0 2.0 0.00 0.00 0.00 75 1005.3
20260506145056 38 142 0.0 2.0 0.00 0.00 0.00 75 1005.3
20260506144959 38 142 0.0 3.0 0.00 0.00 0.00 75 1005.3
20260506144857 38 142 0.0 3.0 0.00 0.00 0.00 75 1005.3
20260506144658 38 142 1.0 3.0 0.00 0.00 0.00 75 1005.3
20260506144556 38 142 0.0 3.0 0.00 0.00 0.00 75 1005.3
20260506144458 38 142 1.0 3.0 0.00 0.00 0.00 75 1005.3
20260506144357 38 142 1.0 3.0 0.00 0.00 0.00 75 1005.3
20260506144257 38 142 1.0 3.0 0.00 0.00 0.00 75 1005.3
20260506144156 38 142 1.0 3.0 0.00 0.00 0.00 76 1005.3
20260506144056 37 142 2.0 3.0 0.00 0.00 0.00 77 1005.4
20260506143959 37 142 2.0 2.0 0.00 0.00 0.00 76 1005.3
20260506143857 37 142 2.0 2.0 0.00 0.00 0.00 76 1005.3
20260506143756 37 142 0.0 1.0 0.00 0.00 0.00 75 1005.3
20260506143656 37 142 1.0 1.0 0.00 0.00 0.00 75 1005.4
20260506143556 37 142 1.0 1.0 0.00 0.00 0.00 75 1005.3
20260506143458 37 142 0.0 1.0 0.00 0.00 0.00 75 1005.3
20260506143357 37 142 0.0 1.0 0.00 0.00 0.00 75 1005.4
20260506143257 37 142 0.0 1.0 0.00 0.00 0.00 75 1005.3
20260506143156 37 142 0.0 1.0 0.00 0.00 0.00 75 1005.3
20260506143058 37 142 0.0 1.0 0.00 0.00 0.00 75 1005.3
20260506142958 37 142 0.0 1.0 0.00 0.00 0.00 75 1005.3
20260506142858 37 142 1.0 655.0 1.78 0.00 0.00 75
20260506142757 37 142 1.0 1.0 0.00 0.00 0.00 75 1005.3
20260506142656 37 142 1.0 1.0 0.00 0.00 0.00 75 1005.3
20260506142557 37 142 0.0 1.0 0.00 0.00 0.00 75 1005.3
20260506142458 37 142 0.0 2.0 0.00 0.00 0.00 75 1005.3
20260506142358 37 142 0.0 2.0 0.00 0.00 0.00 75 1005.3
20260506142257 37 142 1.0 2.0 0.00 0.00 0.00 74 1005.3
20260506142157 37 142 0.0 3.0 0.00 0.00 0.00 74 1005.3
20260506142057 37 142 0.0 3.0 0.00 0.00 0.00 74 1005.4
20260506141958 37 142 0.0 3.0 0.00 0.00 0.00 74 1005.4
20260506141856 37 142 0.0 3.0 0.00 0.00 0.00 74 1005.3
20260506141757 37 142 1.0 3.0 0.00 0.00 0.00 74 1005.3
20260506141657 37 142 1.0 3.0 0.00 0.00 0.00 74 1005.3
20260506141556 37 142 1.0 3.0 0.00 0.00 0.00 74 1005.3
20260506141356 37 142 1.0 4.0 0.00 0.00 0.00 74 1005.3
20260506141256 37 142 2.0 4.0 0.00 0.00 0.00 74 1005.4
20260506141156 37 142 1.0 4.0 0.00 0.00 0.00 74 1005.3
20260506141056 37 142 2.0 4.0 0.00 0.00 0.00 74 1005.3
20260506140959 37 142 2.0 4.0 0.00 0.00 0.00 74 1005.3
20260506140858 37 142 1.0 4.0 0.00 0.00 0.00 74 1005.3
20260506140757 37 142 1.0 4.0 0.00 0.00 0.00 74 1005.3
20260506140656 37 142 2.0 4.0 0.00 0.00 0.00 74 1005.3
20260506140556 37 142 3.0 4.0 0.00 0.00 0.00 74 1005.3
20260506140356 37 142 4.0 4.0 0.00 0.00 0.00 74 1005.3
20260506140257 37 142 3.0 4.0 0.00 0.00 0.00 74 1005.3
20260506140157 37 142 3.0 4.0 0.00 0.00 0.00 74 1005.2
20260506140058 37 142 2.0 4.0 0.00 0.00 0.00 74 1005.2
20260506135958 37 142 4.0 4.0 0.00 0.00 0.00 74 1005.2
20260506135556 37 142 3.0 4.0 0.00 0.00 0.00 74 1005.2
20260506135458 37 142 2.0 3.0 0.00 0.00 0.00 74 1005.2
20260506135357 37 143 3.0 3.0 0.00 0.00 0.00 74 1005.2
20260506135257 37 143 2.0 3.0 0.00 0.00 0.00 74 1005.2
20260506135056 37 143 2.0 3.0 0.00 0.00 0.00 74 1005.2
20260506135000 37 143 2.0 3.0 0.00 0.00 0.00 74 1005.3
20260506134856 37 143 1.0 3.0 0.00 0.00 0.00 74 1005.2
20260506134757 37 143 1.0 3.0 0.00 0.00 0.00 74 1005.2
20260506134657 37 143 2.0 3.0 0.00 0.00 0.00 74 1005.2
20260506134557 37 143 2.0 3.0 0.00 0.00 0.00 74 1005.2
20260506134458 37 143 2.0 3.0 0.00 0.00 0.00 74 1005.2
20260506134356 37 143 2.0 3.0 0.00 0.00 0.00 74 1005.2
20260506134156 38 142 1.0 4.0 0.00 0.00 0.00 74 1005.2
20260506134057 38 142 0.0 4.0 0.00 0.00 0.00 74 1005.2
20260506133959 38 142 1.0 4.0 0.00 0.00 0.00 74 1005.2
20260506133857 38 142 1.0 4.0 0.00 0.00 0.00 74 1005.2
20260506133756 38 142 2.0 4.0 0.00 0.00 0.00 74 1005.2
20260506133658 37 142 1.0 4.0 0.00 0.00 0.00 74 1005.2
20260506133458 37 142 2.0 4.0 0.00 0.00 0.00 74 1005.2
20260506133357 37 142 1.0 4.0 0.00 0.00 0.00 74 1005.2
20260506133256 37 142 1.0 4.0 0.00 0.00 0.00 74 1005.2
20260506133157 37 142 3.0 4.0 0.00 0.00 0.00 74 1005.2
20260506132856 38 142 2.0 3.0 0.00 0.00 0.00 74 1005.2
20260506132757 38 142 2.0 3.0 0.00 0.00 0.00 73 1005.2
20260506132658 38 142 1.0 3.0 0.00 0.00 0.00 73 1005.2
20260506132557 38 142 1.0 3.0 0.00 0.00 0.00 74 1005.2
20260506132458 38 142 0.0 3.0 0.00 0.00 0.00 73 1005.2
20260506132358 38 142 0.0 3.0 0.00 0.00 0.00 73 1005.2
20260506132256 38 142 0.0 3.0 0.00 0.00 0.00 73 1005.1
20260506132156 38 142 1.0 3.0 0.00 0.00 0.00 73 1005.2
20260506132057 37 142 1.0 3.0 0.00 0.00 0.00 73 1005.2
20260506131958 37 142 2.0 3.0 0.00 0.00 0.00 74 1005.2
20260506131856 37 142 2.0 3.0 0.00 0.00 0.00 74 1005.2
20260506131756 37 142 2.0 3.0 0.00 0.00 0.00 74 1005.2
20260506131657 37 142 3.0 3.0 0.00 0.00 0.00 74 1005.2
20260506131557 37 142 3.0 3.0 0.00 0.00 0.00 74 1005.2
20260506131459 37 142 2.0 3.0 0.00 0.00 0.00 74 1005.1
20260506131357 37 142 2.0 3.0 0.00 0.00 0.00 74 1005.1
20260506131257 37 142 1.0 3.0 0.00 0.00 0.00 74 1005.1
20260506131057 37 142 2.0 5.0 0.00 0.00 0.00 74 1005.1
20260506130757 37 142 2.0 5.0 0.00 0.00 0.00 74 1005.1
20260506130657 37 142 1.0 5.0 0.00 0.00 0.00 74 1005.1
20260506130556 37 142 2.0 5.0 0.00 0.00 0.00 74 1005.1
20260506130458 37 142 2.0 5.0 0.00 0.00 0.00 74 1005.1
20260506130358 37 142 3.0 5.0 0.00 0.00 0.00 74 1005.1
20260506130257 37 142 4.0 6.0 0.00 0.00 0.00 74 1005.1
20260506130056 38 153 3.0 6.0 0.00 0.00 0.00 73 1005.1
20260506125958 38 153 4.0 6.0 0.00 0.00 0.00 73 1005.1
20260506125856 38 139 2.0 4.0 0.00 0.00 0.00 73 1005.1
20260506125755 38 111 1.0 3.0 0.00 0.00 0.00 73 1005.0
20260506125656 38 111 2.0 3.0 0.00 0.00 0.00 73 1005.0
20260506125556 38 111 1.0 3.0 0.00 0.00 0.00 73 1005.0
20260506125457 38 111 1.0 3.0 0.00 0.00 0.00 73 1005.0
20260506125356 38 111 0.0 3.0 0.00 0.00 0.00 73 1005.0
20260506125256 38 111 0.0 4.0 0.00 0.00 0.00 73 1005.0
20260506125155 38 111 1.0 4.0 0.00 0.00 0.00 73 1005.0
20260506125055 38 111 1.0 4.0 0.00 0.00 0.00 73 1005.0
20260506124958 38 111 2.0 4.0 0.00 0.00 0.00 73 1005.0
20260506124856 38 111 2.0 4.0 0.00 0.00 0.00 73 1005.0
20260506124755 38 111 2.0 4.0 0.00 0.00 0.00 73 1005.0
20260506124655 38 111 1.0 4.0 0.00 0.00 0.00 73 1005.0
20260506124457 38 111 3.0 4.0 0.00 0.00 0.00 73 1005.0
20260506124355 38 109 3.0 4.0 0.00 0.00 0.00 73 1005.0
20260506124256 38 108 2.0 4.0 0.00 0.00 0.00 73 1005.0
20260506124155 38 109 2.0 4.0 0.00 0.00 0.00 73 1005.0
20260506124058 38 108 2.0 4.0 0.00 0.00 0.00 73 1005.0
20260506123957 38 108 2.0 4.0 0.00 0.00 0.00 73 1005.0
20260506123856 38 108 3.0 4.0 0.00 0.00 0.00 73 1005.0
20260506123757 38 102 4.0 4.0 0.00 0.00 0.00 73 1005.0
20260506123655 38 98 2.0 4.0 0.00 0.00 0.00 73 1005.0
20260506123556 38 98 2.0 4.0 0.00 0.00 0.00 73 1005.0
20260506123456 38 98 2.0 4.0 0.00 0.00 0.00 73 1005.0
20260506123355 38 94 2.0 4.0 0.00 0.00 0.00 73 1005.0
20260506123256 38 351 2.0 4.0 0.00 0.00 0.00 73 1005.0
20260506123155 38 344 2.0 4.0 0.00 0.00 0.00 72 1004.9
20260506123056 38 344 1.0 4.0 0.00 0.00 0.00 72 1004.9
20260506122856 38 355 3.0 4.0 0.00 0.00 0.00 72 1004.9
20260506122756 38 355 2.0 4.0 0.00 0.00 0.00 72 1004.9
20260506122655 38 355 1.0 4.0 0.00 0.00 0.00 72 1004.9
20260506122556 38 355 3.0 4.0 0.00 0.00 0.00 72 1004.9
20260506122457 38 355 3.0 4.0 0.00 0.00 0.00 72 1004.9
20260506122357 38 355 4.0 4.0 0.00 0.00 0.00 72 1004.9
20260506122255 38 17 2.0 4.0 0.00 0.00 0.00 72 1004.8
20260506122155 38 17 1.0 4.0 0.00 0.00 0.00 72 1004.8
20260506121959 38 17 3.0 4.0 0.00 0.00 0.00 72 1004.8
20260506121856 38 107 2.0 3.0 0.00 0.00 0.00 73 1004.8
20260506121756 38 107 1.0 3.0 0.00 0.00 0.00 73 1004.7
20260506121656 38 107 3.0 3.0 0.00 0.00 0.00 73 1004.7
20260506121556 38 113 3.0 3.0 0.00 0.00 0.00 73 1004.8
20260506121458 38 114 0.0 2.0 0.00 0.00 0.00 73 1004.8
20260506121356 38 114 1.0 2.0 0.00 0.00 0.00 74 1004.8
20260506121255 38 114 1.0 2.0 0.00 0.00 0.00 73 1004.8
20260506121156 38 114 0.0 2.0 0.00 0.00 0.00 72 1004.7
20260506121056 38 114 1.0 2.0 0.00 0.00 0.00 72 1004.7
20260506120958 38 114 1.0 2.0 0.00 0.00 0.00 72 1004.8
20260506120556 38 114 0.0 4.0 0.00 0.00 0.00 72 1004.7
20260506120456 38 114 1.0 4.0 0.00 0.00 0.00 72 1004.7
20260506120358 38 114 1.0 4.0 0.00 0.00 0.00 72 1004.7
20260506120256 38 114 1.0 8.0 0.00 0.00 0.00 72 1004.7
20260506120158 38 114 1.0 8.0 0.00 0.00 0.00 71 1004.7
20260506120057 38 114 2.0 8.0 0.00 0.00 0.00 71 1004.7
20260506115957 38 114 2.0 8.0 0.00 0.00 0.00 71 1004.7
20260506115855 39 114 2.0 8.0 0.00 0.00 0.00 71 1004.7
20260506115655 38 109 4.0 8.0 0.00 0.00 0.00 70 1004.7
20260506115556 38 52 3.0 8.0 0.00 0.00 0.00 71 1004.6
20260506115458 38 355 6.0 8.0 0.00 0.00 0.00 72 1004.7
20260506115255 38 286 1.0 5.0 0.00 0.00 0.00 72 1004.7
20260506115156 38 286 1.0 5.0 0.00 0.00 0.00 72 1004.7
20260506115056 38 286 2.0 5.0 0.00 0.00 0.00 72 1004.6
20260506114957 38 284 2.0 5.0 0.00 0.00 0.00 72 1004.7
20260506114856 38 284 0.0 5.0 0.00 0.00 0.00 72 1004.6
20260506114756 38 284 3.0 5.0 0.00 0.00 0.00 72 1004.7
20260506114657 38 286 4.0 4.0 0.00 0.00 0.00 72 1004.6
20260506114556 38 51 1.0 2.0 0.00 0.00 0.00 72 1004.6
20260506114457 38 51 1.0 2.0 0.00 0.00 0.00 72 1004.7
20260506114356 38 51 0.0 3.0 0.00 0.00 0.00 72 1004.6
20260506114256 38 51 0.0 3.0 0.00 0.00 0.00 72 1004.6
20260506114155 38 51 2.0 3.0 0.00 0.00 0.00 72 1004.6
20260506114056 38 51 0.0 3.0 0.00 0.00 0.00 72 1004.6
20260506113958 38 51 0.0 3.0 0.00 0.00 0.00 72 1004.6
20260506113655 38 51 2.0 3.0 0.00 0.00 0.00 72 1004.6
20260506113555 38 52 2.0 3.0 0.00 0.00 0.00 72 1004.6
20260506113457 38 51 2.0 3.0 0.00 0.00 0.00 72 1004.6
20260506113355 38 51 1.0 3.0 0.00 0.00 0.00 72 1004.7
20260506113156 38 35 3.0 3.0 0.00 0.00 0.00 72 1004.7
20260506113056 38 319 2.0 3.0 0.00 0.00 0.00 72 1004.7
20260506112855 38 318 2.0 3.0 0.00 0.00 0.00 72 1004.6
20260506112756 38 317 2.0 2.0 0.00 0.00 0.00 72 1004.6
20260506112656 38 317 2.0 3.0 0.00 0.00 0.00 72 1004.6
20260506112555 38 318 1.0 3.0 0.00 0.00 0.00 72 1004.6
20260506112356 38 318 0.0 3.0 0.00 0.00 0.00 71 1004.7
20260506112256 38 318 0.0 3.0 0.00 0.00 0.00 71 1004.6
20260506112156 38 318 0.0 3.0 0.00 0.00 0.00 71 1004.6
20260506111958 38 318 1.0 3.0 0.00 0.00 0.00 71 1004.7
20260506111855 38 318 3.0 3.0 0.00 0.00 0.00 71 1004.7
20260506111756 38 317 2.0 3.0 0.00 0.00 0.00 71 1004.7
20260506111656 38 317 2.0 2.0 0.00 0.00 0.00 72 1004.7
20260506111457 38 317 1.0 2.0 0.00 0.00 0.00 71 1004.7
20260506111355 38 317 1.0 2.0 0.00 0.00 0.00 71 1004.7
20260506111255 38 317 2.0 2.0 0.00 0.00 0.00 71 1004.7
20260506111156 38 317 1.0 2.0 0.00 0.00 0.00 71 1004.7
20260506111056 38 317 0.0 2.0 0.00 0.00 0.00 71 1004.7
20260506110958 38 317 1.0 2.0 0.00 0.00 0.00 70 1004.7
20260506110855 39 317 1.0 2.0 0.00 0.00 0.00 70 1004.7
20260506110655 39 317 1.0 3.0 0.00 0.00 0.00 70 1004.7
20260506110556 39 317 1.0 3.0 0.00 0.00 0.00 70 1004.7
20260506110457 39 317 1.0 3.0 0.00 0.00 0.00 70 1004.7
20260506110256 39 317 0.0 3.0 0.00 0.00 0.00 70 1004.7
20260506110156 39 317 1.0 3.0 0.00 0.00 0.00 70 1004.6
20260506110057 39 317 0.0 3.0 0.00 0.00 0.00 69 1004.6
20260506105957 39 317 1.0 3.0 0.00 0.00 0.00 69 1004.6
20260506105856 39 317 1.0 4.0 0.00 0.00 0.00 69 1004.6
20260506105756 39 317 2.0 4.0 0.00 0.00 0.00 69 1004.6
20260506105656 39 317 2.0 4.0 0.00 0.00 0.00 69 1004.6
20260506105555 39 317 2.0 4.0 0.00 0.00 0.00 69 1004.6
20260506105457 39 317 2.0 4.0 0.00 0.00 0.00 69 1004.5
20260506105255 39 317 1.0 4.0 0.00 0.00 0.00 70 1004.5
20260506105056 39 317 3.0 4.0 0.00 0.00 0.00 69 1004.5
20260506104958 39 317 4.0 4.0 0.00 0.00 0.00 69 1004.5
20260506104856 39 280 2.0 4.0 0.00 0.00 0.00 70 1004.5
20260506104755 39 229 1.0 4.0 0.00 0.00 0.00 70 1004.5
20260506104556 39 144 2.0 2.0 0.00 0.00 0.00 70 1004.5
20260506104457 39 144 1.0 2.0 0.00 0.00 0.00 70 1004.5
20260506104356 39 144 2.0 2.0 0.00 0.00 0.00 70 1004.5
20260506104255 39 144 0.0 2.0 0.00 0.00 0.00 70 1004.4
20260506104156 39 144 1.0 4.0 0.00 0.00 0.00 70 1004.5
20260506104056 39 144 1.0 4.0 0.00 0.00 0.00 71 1004.5
20260506103959 39 144 1.0 4.0 0.00 0.00 0.00 71 1004.5
20260506103856 39 144 1.0 4.0 0.00 0.00 0.00 70 1004.5
20260506103657 39 144 0.0 4.0 0.00 0.00 0.00 70 1004.4
20260506103556 39 144 0.0 4.0 0.00 0.00 0.00 69 1004.4
20260506103355 39 144 1.0 4.0 0.00 0.00 0.00 69 1004.4
20260506102958 38 147 1.0 3.0 0.00 0.00 0.00 71 1004.4
20260506102855 38 147 1.0 3.0 0.00 0.00 0.00 71 1004.3
20260506102656 38 147 1.0 3.0 0.00 0.00 0.00 71 1004.5
20260506102555 38 147 2.0 3.0 0.00 0.00 0.00 71 1004.4
20260506102457 38 147 1.0 3.0 0.00 0.00 0.00 71 1004.4
20260506102356 38 147 1.0 3.0 0.00 0.00 0.00 70 1004.5
20260506102257 39 147 0.0 3.0 0.00 0.00 0.00 71 1004.4
20260506102156 38 147 2.0 3.0 0.00 0.00 0.00 70 1004.4
20260506102054 38 147 3.0 3.0 0.00 0.00 0.00 70 1004.5
20260506101957 39 147 2.0 3.0 0.00 0.00 0.00 70 1004.4
20260506101855 39 147 0.0 4.0 0.00 0.00 0.00 70 1004.5
20260506101756 39 147 1.0 4.0 0.00 0.00 0.00 70 1004.5
20260506101655 39 147 3.0 4.0 0.00 0.00 0.00 70 1004.4
20260506101555 39 147 1.0 4.0 0.00 0.00 0.00 70 1004.4
20260506101356 39 147 0.0 4.0 0.00 0.00 0.00 70 1004.4
20260506101255 39 147 1.0 4.0 0.00 0.00 0.00 70 1004.3
20260506101156 39 147 1.0 4.0 0.00 0.00 0.00 70 1004.3
20260506100957 39 147 3.0 5.0 0.00 0.00 0.00 69 1004.3
20260506100857 39 147 2.0 5.0 0.00 0.00 0.00 69 1004.3
20260506100757 39 147 1.0 5.0 0.00 0.00 0.00 69 1004.3
20260506100656 39 147 1.0 5.0 0.00 0.00 0.00 69 1004.3
20260506100556 39 147 3.0 5.0 0.00 0.00 0.00 68 1004.3
20260506100457 39 146 2.0 5.0 0.00 0.00 0.00 68 1004.2
20260506100356 39 146 2.0 5.0 0.00 0.00 0.00 68 1004.2
20260506100255 39 146 3.0 5.0 0.00 0.00 0.00 68 1004.2
20260506100156 40 279 2.0 5.0 0.00 0.00 0.00 67 1004.2
20260506100056 40 286 4.0 4.0 0.00 0.00 0.00 67 1004.1
20260506095959 40 318 2.0 4.0 0.00 0.00 0.00 68 1004.2
20260506095856 40 319 1.0 5.0 0.00 0.00 0.00 67 1004.2
20260506095756 40 318 2.0 8.0 0.00 0.00 0.00 67 1004.2
20260506095656 40 318 2.0 8.0 0.00 0.00 0.00 67 1004.2
20260506095458 40 319 1.0 8.0 0.00 0.00 0.00 67 1004.2
20260506095356 40 317 1.0 8.0 0.00 0.00 0.00 66 1004.2
20260506095255 40 319 2.0 8.0 0.00 0.00 0.00 66 1004.1
20260506095156 40 321 2.0 8.0 0.00 0.00 0.00 66 1004.1
20260506094957 40 291 3.0 8.0 0.00 0.00 0.00 66 1004.0
20260506094856 40 296 7.0 8.0 0.00 0.00 0.00 66 1004.1
20260506094755 40 316 4.0 9.0 0.00 0.00 0.00 66 1004.1
20260506094556 40 296 8.0 9.0 0.00 0.00 0.00 66 1004.1
20260506094356 40 343 0.0 9.0 0.00 0.00 0.00 65 1004.1
20260506094256 40 342 1.0 9.0 0.00 0.00 0.00 65 1004.1
20260506094155 40 343 2.0 9.0 0.00 0.00 0.00 65 1004.1
20260506094056 40 355 1.0 9.0 0.00 0.00 0.00 65 1004.0
20260506093655 41 327 4.0 9.0 0.00 0.00 0.00 64 1004.1
20260506093555 41 309 7.0 9.0 0.00 0.00 0.00 63 1004.1
20260506093457 41 123 2.0 8.0 0.00 0.00 0.00 63 1004.1
20260506093357 41 114 7.0 8.0 0.00 0.00 0.00 63 1004.0
20260506093256 41 313 2.0 8.0 0.00 0.00 0.00 63 1004.0
20260506093156 41 304 2.0 10.0 0.00 0.00 0.00 62 1003.9
20260506093055 41 277 3.0 12.0 0.00 0.00 0.00 62 1004.0
20260506092957 41 288 5.0 12.0 0.00 0.00 0.00 62 1004.0
20260506092755 41 240 5.0 12.0 0.00 0.00 0.00 62 1004.0
20260506092655 41 191 4.0 12.0 0.00 0.00 0.00 62 1004.0
20260506092555 41 28 2.0 12.0 0.00 0.00 0.00 62 1004.0
20260506092457 41 190 3.0 12.0 0.00 0.00 0.00 62 1004.1
20260506092255 41 138 5.0 13.0 0.00 0.00 0.00 62 1004.0
20260506092155 41 226 5.0 15.0 0.00 0.00 0.00 62 1004.0
20260506092055 41 191 3.0 15.0 0.00 0.00 0.00 62 1003.9
20260506091957 41 252 4.0 15.0 0.00 0.00 0.00 62 1003.9
20260506091755 41 160 4.0 15.0 0.00 0.00 0.00 62 1003.9
20260506091657 41 71 2.0 15.0 0.00 0.00 0.00 62 1003.9
20260506091556 41 141 1.0 15.0 0.00 0.00 0.00 62 1003.9
20260506091458 41 118 7.0 15.0 0.00 0.00 0.00 62 1003.9
20260506091355 41 78 10.0 15.0 0.00 0.00 0.00 62 1003.9
20260506091255 41 120 13.0 15.0 0.00 0.00 0.00 62 1003.9
20260506091056 41 86 3.0 15.0 0.00 0.00 0.00 62 1003.9
20260506090958 41 83 4.0 15.0 0.00 0.00 0.00 62 1003.9
20260506090755 41 103 9.0 15.0 0.00 0.00 0.00 62 1003.9
20260506090656 41 120 15.0 15.0 0.00 0.00 0.00 63 1003.9
20260506090555 41 209 4.0 13.0 0.00 0.00 0.00 62 1003.8
20260506090458 41 126 5.0 13.0 0.00 0.00 0.00 62 1003.9
20260506090356 41 112 2.0 13.0 0.00 0.00 0.00 62 1003.9
20260506090256 41 90 8.0 13.0 0.00 0.00 0.00 62 1003.9
20260506090156 41 166 5.0 13.0 0.00 0.00 0.00 62 1003.9
20260506090056 41 143 2.0 13.0 0.00 0.00 0.00 63 1003.9
20260506090000 41 124 5.0 13.0 0.00 0.00 0.00 63 1003.9
20260506085858 41 96 6.0 13.0 0.00 0.00 0.00 62 1003.9
20260506085756 41 105 7.0 13.0 0.00 0.00 0.00 62 1003.9
20260506085656 41 144 3.0 8.0 0.00 0.00 0.00 63 1003.9
20260506085556 41 118 1.0 9.0 0.00 0.00 0.00 63 1003.9
20260506085458 41 111 3.0 9.0 0.00 0.00 0.00 63 1003.9
20260506085356 41 180 2.0 9.0 0.00 0.00 0.00 63 1003.8
20260506085257 41 180 3.0 9.0 0.00 0.00 0.00 63 1003.9
20260506085157 41 208 1.0 9.0 0.00 0.00 0.00 63 1003.9
20260506085057 41 208 1.0 9.0 0.00 0.00 0.00 63 1003.9
20260506084958 41 135 2.0 9.0 0.00 0.00 0.00 63 1003.9
20260506084757 41 190 5.0 12.0 0.00 0.00 0.00 63 1003.9
20260506084657 41 176 3.0 12.0 0.00 0.00 0.00 63 1003.9
20260506084556 41 178 6.0 12.0 0.00 0.00 0.00 63 1003.9
20260506084458 41 142 5.0 12.0 0.00 0.00 0.00 63 1003.9
20260506084358 41 155 2.0 12.0 0.00 0.00 0.00 63 1003.9
20260506084257 41 136 5.0 12.0 0.00 0.00 0.00 63 1003.8
20260506084156 41 142 8.0 12.0 0.00 0.00 0.00 62 1003.8
20260506084057 41 151 4.0 11.0 0.00 0.00 0.00 62 1003.8
20260506083958 41 164 2.0 11.0 0.00 0.00 0.00 62 1003.8
20260506083757 41 159 7.0 11.0 0.00 0.00 0.00 62 1003.7
20260506083657 41 159 7.0 11.0 0.00 0.00 0.00 63 1003.7
20260506083556 41 173 2.0 11.0 0.00 0.00 0.00 62 1003.7
20260506083356 41 172 1.0 14.0 0.00 0.00 0.00 62 1003.8
20260506083056 41 155 3.0 14.0 0.00 0.00 0.00 63 1003.7
20260506082957 41 131 7.0 14.0 0.00 0.00 0.00 63 1003.7
20260506082856 41 154 7.0 14.0 0.00 0.00 0.00 63 1003.7
20260506082756 41 177 6.0 14.0 0.00 0.00 0.00 62 1003.8
20260506082656 41 189 6.0 14.0 0.00 0.00 0.00 62 1003.8
20260506082556 41 150 4.0 14.0 0.00 0.00 0.00 62 1003.7
20260506082459 41 181 2.0 14.0 0.00 0.00 0.00 61 1003.6
20260506082256 42 160 4.0 14.0 0.00 0.00 0.00 61 1003.6
20260506082156 41 169 7.0 14.0 0.00 0.00 0.00 61 1003.6
20260506081957 42 163 2.0 14.0 0.00 0.00 0.00 60 1003.6
20260506081857 42 114 6.0 19.0 0.00 0.00 0.00 60 1003.6
20260506081656 41 162 7.0 19.0 0.00 0.00 0.00 60 1003.6
20260506081556 41 132 3.0 19.0 0.00 0.00 0.00 60 1003.5
20260506081458 41 130 7.0 19.0 0.00 0.00 0.00 60 1003.6
20260506081356 41 106 7.0 19.0 0.00 0.00 0.00 61 1003.5
20260506081256 41 161 1.0 19.0 0.00 0.00 0.00 61 1003.4
20260506081157 41 175 8.0 20.0 0.00 0.00 0.00 61 1003.5
20260506081056 41 140 12.0 20.0 0.00 0.00 0.00 61 1003.5
20260506080959 41 150 14.0 20.0 0.00 0.00 0.00 61 1003.5
20260506080857 42 128 10.0 20.0 0.00 0.00 0.00 61 1003.5
20260506080758 42 171 9.0 20.0 0.00 0.00 0.00 61 1003.6
20260506080656 42 147 8.0 20.0 0.00 0.00 0.00 60 1003.5
20260506080557 42 153 10.0 20.0 0.00 0.00 0.00 60 1003.5
20260506080457 42 146 5.0 20.0 0.00 0.00 0.00 59 1003.5
20260506080358 42 123 13.0 20.0 0.00 0.00 0.00 59 1003.5
20260506080257 42 150 5.0 18.0 0.00 0.00 0.00 59 1003.5
20260506080158 42 155 4.0 18.0 0.00 0.00 0.00 59 1003.5
20260506073500 41 192 6.0 13.0 0.00 0.00 0.00 60 1003.3
20260506073357 41 142 4.0 13.0 0.00 0.00 0.00 60 1003.3
20260506073258 41 121 3.0 14.0 0.00 0.00 0.00 60 1003.3
20260506073158 41 122 9.0 14.0 0.00 0.00 0.00 60 1003.3
20260506073058 41 81 9.0 17.0 0.00 0.00 0.00 60 1003.2
20260506073001 42 166 12.0 17.0 0.00 0.00 0.00 60 1003.3
20260506072859 42 153 4.0 18.0 0.00 0.00 0.00 60 1003.3
20260506072758 42 169 1.0 20.0 0.00 0.00 0.00 60 1003.3
20260506072658 42 121 10.0 20.0 0.00 0.00 0.00 59 1003.3
20260506072558 41 108 10.0 20.0 0.00 0.00 0.00 60 1003.2
20260506072358 41 92 11.0 20.0 0.00 0.00 0.00 60 1003.2
20260506072258 41 134 10.0 20.0 0.00 0.00 0.00 60 1003.3
20260506071858 41 124 14.0 20.0 0.00 0.00 0.00 61 1003.2
20260506071659 41 126 9.0 20.0 0.00 0.00 0.00 60 1003.3
20260506071503 41 115 12.0 20.0 0.00 0.00 0.00 61 1003.2
20260506071359 41 104 10.0 21.0 0.00 0.00 0.00 60 1003.2
20260506071258 41 99 17.0 21.0 0.00 0.00 0.00 61 1003.1
20260506071159 41 109 8.0 21.0 0.00 0.00 0.00 61 1003.2
20260506071058 41 128 9.0 21.0 0.00 0.00 0.00 60 1003.2
20260506071001 42 148 12.0 21.0 0.00 0.00 0.00 60 1003.2
20260506070858 41 117 10.0 21.0 0.00 0.00 0.00 60 1003.2
20260506070558 42 122 16.0 23.0 0.00 0.00 0.00 60 1003.2
20260506070500 42 106 18.0 23.0 0.00 0.00 0.00 60 1003.1
20260506070358 42 105 18.0 23.0 0.00 0.00 0.00 61 1003.2
20260506070300 42 109 11.0 23.0 0.00 0.00 0.00 60 1003.2
20260506070158 42 125 14.0 23.0 0.00 0.00 0.00 60 1003.2
20260506062358 42 120 16.0 19.0 0.00 0.00 0.00 60 1002.7
20260506062258 42 153 10.0 19.0 0.00 0.00 0.00 60 1002.8
20260506062158 42 138 12.0 19.0 0.00 0.00 0.00 59 1002.8
20260506062058 42 129 7.0 19.0 0.00 0.00 0.00 59 1002.7
20260506062000 42 152 7.0 19.0 0.00 0.00 0.00 58 1002.7
20260506061858 42 119 14.0 19.0 0.00 0.00 0.00 59 1002.7
20260506061758 42 74 10.0 15.0 0.00 0.00 0.00 59 1002.8
20260506061700 42 78 8.0 15.0 0.00 0.00 0.00 59 1002.7
20260506061559 42 105 11.0 15.0 0.00 0.00 0.00 59 1002.7
20260506061500 42 122 5.0 15.0 0.00 0.00 0.00 59 1002.7
20260506061359 42 180 7.0 15.0 0.00 0.00 0.00 58 1002.7
20260506061258 42 122 10.0 15.0 0.00 0.00 0.00 58 1002.7
20260506061159 42 80 11.0 15.0 0.00 0.00 0.00 59 1002.7
20260506061058 42 98 15.0 15.0 0.00 0.00 0.00 59 1002.6
20260506061000 42 118 9.0 15.0 0.00 0.00 0.00 59 1002.6
20260506060859 42 83 10.0 15.0 0.00 0.00 0.00 59 1002.7
20260506060759 42 143 3.0 15.0 0.00 0.00 0.00 59 1002.6
20260506060659 42 147 1.0 15.0 0.00 0.00 0.00 59 1002.7
20260506060558 42 146 3.0 15.0 0.00 0.00 0.00 59 1002.6
20260506060505 43 123 10.0 15.0 0.00 0.00 0.00 58 1002.6
20260506060359 43 90 9.0 15.0 0.00 0.00 0.00 58 1002.6
20260506060158 43 171 2.0 14.0 0.00 0.00 0.00 59 1002.5